Time,TemperatureF,DewpointF,PressureIn,WindDirection,WindDirectionDegrees,WindSpeedMPH,WindSpeedGustMPH,Humidity,HourlyPrecipIn,Conditions,Clouds,dailyrainin,SoftwareType,DateUTC
2013-03-24 00:00:00,51.4,29.7,27.74,ESE,114,3.0,18.0,43,0.00,RA,SKC,0.00,WeatherDisplay:10.37,2013-03-24 04:00:00,
2013-03-24 00:05:00,51.4,30.2,27.75,ENE,68,3.8,3.8,44,0.00,RA,SKC,0.00,WeatherDisplay:10.37,2013-03-24 04:05:00,
2013-03-24 00:10:00,51.6,29.3,27.76,South,180,8.1,8.1,42,0.00,CLR,SKC,0.00,WeatherDisplay:10.37,2013-03-24 04:10:00,
2013-03-24 00:15:00,51.6,29.3,27.76,SSE,158,10.4,10.4,42,0.00,CLR,SKC,0.00,WeatherDisplay:10.37,2013-03-24 04:15:00,
2013-03-24 00:16:00,51.6,29.3,27.76,SSE,158,10.4,10.4,42,0.00,CLR,SKC,0.00,WeatherDisplay:10.37,2013-03-24 04:16:00,
2013-03-24 00:17:00,51.6,29.3,27.77,South,180,8.1,8.1,42,0.00,CLR,SKC,0.00,WeatherDisplay:10.37,2013-03-24 04:17:00,
2013-03-24 00:20:00,51.8,29.4,27.77,SE,135,12.7,12.7,42,0.00,CLR,SKC,0.00,WeatherDisplay:10.37,2013-03-24 04:20:00,
2013-03-24 00:21:00,51.8,29.4,27.77,South,180,12.7,12.7,42,0.00,CLR,SKC,0.00,WeatherDisplay:10.37,2013-03-24 04:21:00,
2013-03-24 00:22:00,51.8,28.8,27.78,SE,135,8.1,8.1,41,0.00,CLR,SKC,0.00,WeatherDisplay:10.37,2013-03-24 04:22:00,
2013-03-24 00:25:00,51.8,28.8,27.78,SE,135,10.4,10.4,41,0.00,CLR,SKC,0.00,WeatherDisplay:10.37,2013-03-24 04:25:00,
2013-03-24 00:27:00,51.6,28.7,27.78,South,180,9.2,9.2,41,0.00,CLR,SKC,0.00,WeatherDisplay:10.37,2013-03-24 04:27:00,
2013-03-24 00:31:00,51.8,27.6,27.78,SE,135,15.0,15.0,39,0.00,CLR,SKC,0.00,WeatherDisplay:10.37,2013-03-24 04:31:00,
2013-03-24 00:32:00,51.8,27.6,27.78,SE,135,9.2,9.2,39,0.00,CLR,SKC,0.00,WeatherDisplay:10.37,2013-03-24 04:32:00,
2013-03-24 00:33:00,51.8,27.6,27.79,South,180,9.2,9.2,39,0.00,CLR,SKC,0.00,WeatherDisplay:10.37,2013-03-24 04:33:00,
2013-03-24 00:36:00,51.8,27.0,27.80,SE,135,10.4,10.4,38,0.00,CLR,SKC,0.00,WeatherDisplay:10.37,2013-03-24 04:36:00,
2013-03-24 00:37:00,51.8,26.3,27.80,South,180,8.1,8.1,37,0.00,CLR,SKC,0.00,WeatherDisplay:10.37,2013-03-24 04:37:00,
2013-03-24 00:39:00,51.8,27.0,27.80,SE,135,13.8,13.8,38,0.00,CLR,SKC,0.00,WeatherDisplay:10.37,2013-03-24 04:39:00,
2013-03-24 00:42:00,51.8,26.3,27.79,ENE,68,10.4,10.4,37,0.00,CLR,SKC,0.00,WeatherDisplay:10.37,2013-03-24 04:42:00,
2013-03-24 00:43:00,51.8,27.0,27.79,South,180,5.8,5.8,38,0.00,CLR,SKC,0.00,WeatherDisplay:10.37,2013-03-24 04:43:00,
2013-03-24 00:44:00,51.8,25.7,27.79,SE,135,10.7,10.7,36,0.00,CLR,SKC,0.00,WeatherDisplay:10.37,2013-03-24 04:44:00,
2013-03-24 00:47:00,51.8,26.3,27.80,South,180,5.8,5.8,37,0.00,CLR,SKC,0.00,WeatherDisplay:10.37,2013-03-24 04:47:00,
2013-03-24 00:48:00,51.8,26.3,27.81,SSW,202,5.8,5.8,37,0.00,CLR,SKC,0.00,WeatherDisplay:10.37,2013-03-24 04:48:00,
2013-03-24 00:49:00,51.8,25.7,27.82,SE,135,10.4,10.4,36,0.00,CLR,SKC,0.00,WeatherDisplay:10.37,2013-03-24 04:49:00,
2013-03-24 00:52:00,51.8,26.3,27.83,SSE,158,4.6,4.6,37,0.00,CLR,SKC,0.00,WeatherDisplay:10.37,2013-03-24 04:52:00,
2013-03-24 00:53:00,51.8,26.3,27.84,WSW,248,4.6,4.6,37,0.00,CLR,SKC,0.00,WeatherDisplay:10.37,2013-03-24 04:53:00,
2013-03-24 00:54:00,51.6,26.2,27.84,SE,135,5.8,5.8,37,0.00,CLR,SKC,0.00,WeatherDisplay:10.37,2013-03-24 04:54:00,
2013-03-24 00:57:00,51.6,26.2,27.84,ENE,68,3.5,3.5,37,0.00,CLR,SKC,0.00,WeatherDisplay:10.37,2013-03-24 04:57:00,
2013-03-24 00:58:00,51.6,26.8,27.84,North,0,3.5,3.5,38,0.00,CLR,SKC,0.00,WeatherDisplay:10.37,2013-03-24 04:58:00,
2013-03-24 00:59:00,51.4,27.3,27.84,North,0,3.5,0.0,39,0.00,CLR,SKC,0.00,WeatherDisplay:10.37,2013-03-24 04:59:00,
2013-03-24 01:02:00,51.4,27.3,27.84,North,0,1.1,0.0,39,0.00,CLR,SKC,0.00,WeatherDisplay:10.37,2013-03-24 05:02:00,
2013-03-24 01:03:00,51.4,27.3,27.84,North,0,1.1,0.0,39,0.00,CLR,SKC,0.00,WeatherDisplay:10.37,2013-03-24 05:03:00,
2013-03-24 01:04:00,51.4,27.3,27.83,North,0,1.1,0.0,39,0.00,CLR,SKC,0.00,WeatherDisplay:10.37,2013-03-24 05:04:00,
2013-03-24 01:08:00,51.4,27.3,27.84,North,0,1.1,0.0,39,0.00,CLR,SKC,0.00,WeatherDisplay:10.37,2013-03-24 05:08:00,
2013-03-24 01:09:00,51.4,27.3,27.83,North,0,1.1,0.0,39,0.00,CLR,SKC,0.00,WeatherDisplay:10.37,2013-03-24 05:09:00,
2013-03-24 01:13:00,50.2,30.2,27.83,North,0,1.1,0.0,46,0.01,RA,SKC,0.01,WeatherDisplay:10.37,2013-03-24 05:13:00,
2013-03-24 01:14:00,50.2,30.2,27.83,North,0,1.1,0.0,46,0.02,RA,SKC,0.02,WeatherDisplay:10.37,2013-03-24 05:14:00,
2013-03-24 01:15:00,50.2,30.7,27.83,North,0,1.1,0.0,47,0.02,RA,SKC,0.02,WeatherDisplay:10.37,2013-03-24 05:15:00,
2013-03-24 01:18:00,49.8,30.9,27.84,NE,45,2.3,0.0,48,0.04,RA,SKC,0.04,WeatherDisplay:10.37,2013-03-24 05:18:00,
2013-03-24 01:19:00,49.8,31.4,27.83,SW,225,2.3,2.3,49,0.05,RA,SKC,0.05,WeatherDisplay:10.37,2013-03-24 05:19:00,
2013-03-24 01:20:00,49.6,32.2,27.84,West,270,3.5,3.5,51,0.05,RA,SKC,0.05,WeatherDisplay:10.37,2013-03-24 05:20:00,
2013-03-24 01:23:00,49.5,32.6,27.83,ENE,68,0.0,0.0,52,0.06,RA,SKC,0.06,WeatherDisplay:10.37,2013-03-24 05:23:00,
2013-03-24 01:24:00,49.3,32.4,27.83,ENE,68,2.3,0.0,52,0.06,RA,SKC,0.07,WeatherDisplay:10.37,2013-03-24 05:24:00,
2013-03-24 01:25:00,49.3,32.4,27.83,ENE,68,2.3,0.0,52,0.07,RA,SKC,0.07,WeatherDisplay:10.37,2013-03-24 05:25:00,
2013-03-24 01:28:00,49.1,33.2,27.82,SE,135,5.8,5.8,54,0.08,RA,SKC,0.08,WeatherDisplay:10.37,2013-03-24 05:28:00,
2013-03-24 01:29:00,49.1,33.2,27.82,SE,135,5.8,5.8,54,0.09,RA,SKC,0.09,WeatherDisplay:10.37,2013-03-24 05:29:00,
2013-03-24 01:30:00,49.1,33.2,27.82,SE,135,5.8,0.0,54,0.09,RA,SKC,0.09,WeatherDisplay:10.37,2013-03-24 05:30:00,
2013-03-24 01:33:00,49.1,33.2,27.82,ENE,68,0.0,0.0,54,0.11,RA,SKC,0.11,WeatherDisplay:10.37,2013-03-24 05:33:00,
2013-03-24 01:35:00,48.9,33.4,27.82,NE,45,2.3,0.0,55,0.11,RA,SKC,0.11,WeatherDisplay:10.37,2013-03-24 05:35:00,
2013-03-24 01:39:00,48.9,33.4,27.81,West,270,3.5,3.5,55,0.12,RA,SKC,0.12,WeatherDisplay:10.37,2013-03-24 05:39:00,
2013-03-24 01:40:00,48.7,33.3,27.81,ENE,68,3.5,0.0,55,0.12,RA,SKC,0.12,WeatherDisplay:10.37,2013-03-24 05:40:00,
2013-03-24 01:44:00,48.9,33.9,27.81,North,0,2.3,2.3,56,0.13,RA,SKC,0.13,WeatherDisplay:10.37,2013-03-24 05:44:00,
2013-03-24 01:45:00,48.9,33.9,27.81,SE,135,2.3,0.0,56,0.13,RA,SKC,0.13,WeatherDisplay:10.37,2013-03-24 05:45:00,
2013-03-24 01:49:00,48.7,34.2,27.80,North,0,4.6,4.6,57,0.14,RA,SKC,0.14,WeatherDisplay:10.37,2013-03-24 05:49:00,
2013-03-24 01:50:00,48.7,34.2,27.81,SE,135,5.8,5.8,57,0.14,RA,SKC,0.14,WeatherDisplay:10.37,2013-03-24 05:50:00,
2013-03-24 01:51:00,48.7,34.2,27.81,SE,135,5.8,0.0,57,0.14,RA,SKC,0.14,WeatherDisplay:10.37,2013-03-24 05:51:00,
2013-03-24 01:54:00,48.7,34.6,27.81,South,180,7.6,7.6,58,0.14,RA,SKC,0.15,WeatherDisplay:10.37,2013-03-24 05:54:00,
2013-03-24 01:55:00,48.7,34.6,27.81,NE,45,8.1,8.1,58,0.15,RA,SKC,0.15,WeatherDisplay:10.37,2013-03-24 05:55:00,
2013-03-24 01:56:00,48.7,34.6,27.81,NE,45,8.1,8.1,58,0.15,RA,SKC,0.15,WeatherDisplay:10.37,2013-03-24 05:56:00,
2013-03-24 01:59:00,48.9,34.3,27.81,North,0,5.8,5.8,57,0.15,RA,SKC,0.15,WeatherDisplay:10.37,2013-03-24 05:59:00,
2013-03-24 02:01:00,48.9,34.3,27.81,NW,315,2.3,2.3,57,0.15,RA,SKC,0.15,WeatherDisplay:10.37,2013-03-24 06:01:00,
2013-03-24 02:02:00,48.9,34.3,27.81,NW,315,2.3,2.3,57,0.15,RA,SKC,0.15,WeatherDisplay:10.37,2013-03-24 06:02:00,
2013-03-24 02:04:00,48.9,34.3,27.81,NW,315,2.3,2.3,57,0.15,RA,SKC,0.15,WeatherDisplay:10.37,2013-03-24 06:04:00,
2013-03-24 02:06:00,48.9,34.3,27.81,NW,315,2.3,2.3,57,0.15,,SKC,0.15,WeatherDisplay:10.37,2013-03-24 06:06:00,
2013-03-24 02:07:00,48.9,34.3,27.81,NW,315,2.3,2.3,57,0.15,CLR,SKC,0.15,WeatherDisplay:10.37,2013-03-24 06:07:00,
2013-03-24 02:09:00,48.7,34.2,27.80,ENE,68,1.1,0.0,57,0.18,RA,SKC,0.18,WeatherDisplay:10.37,2013-03-24 06:09:00,
2013-03-24 02:11:00,48.7,34.2,27.78,ENE,68,1.1,0.0,57,0.17,RA,SKC,0.18,WeatherDisplay:10.37,2013-03-24 06:11:00,
2013-03-24 02:12:00,48.7,34.2,27.78,ENE,68,0.0,0.0,57,0.17,RA,SKC,0.18,WeatherDisplay:10.37,2013-03-24 06:12:00,
2013-03-24 02:15:00,48.6,34.4,27.78,NE,45,2.3,0.0,58,0.17,RA,SKC,0.19,WeatherDisplay:10.37,2013-03-24 06:15:00,
2013-03-24 02:17:00,48.6,34.4,27.77,NW,315,1.1,0.0,58,0.15,RA,SKC,0.19,WeatherDisplay:10.37,2013-03-24 06:17:00,
2013-03-24 02:20:00,48.4,34.3,27.77,West,270,3.5,3.5,58,0.15,RA,SKC,0.20,WeatherDisplay:10.37,2013-03-24 06:20:00,
2013-03-24 02:22:00,48.4,34.3,27.76,NW,315,2.3,0.0,58,0.14,RA,SKC,0.20,WeatherDisplay:10.37,2013-03-24 06:22:00,
2013-03-24 02:25:00,48.4,34.7,27.76,NE,45,1.1,1.6,59,0.14,RA,SKC,0.21,WeatherDisplay:10.37,2013-03-24 06:25:00,
2013-03-24 02:27:00,48.4,34.7,27.76,NE,45,3.5,0.0,59,0.13,RA,SKC,0.21,WeatherDisplay:10.37,2013-03-24 06:27:00,
2013-03-24 02:28:00,48.4,34.7,27.76,NE,45,1.1,0.0,59,0.13,RA,SKC,0.21,WeatherDisplay:10.37,2013-03-24 06:28:00,
2013-03-24 02:30:00,48.4,34.3,27.76,NW,315,8.1,8.1,58,0.12,RA,SKC,0.21,WeatherDisplay:10.37,2013-03-24 06:30:00,
2013-03-24 02:32:00,48.4,34.7,27.75,ENE,68,2.3,0.0,59,0.12,RA,SKC,0.21,WeatherDisplay:10.37,2013-03-24 06:32:00,
2013-03-24 02:33:00,48.4,34.7,27.75,North,0,2.3,2.3,59,0.11,RA,SKC,0.21,WeatherDisplay:10.37,2013-03-24 06:33:00,
2013-03-24 02:35:00,48.4,34.3,27.75,SE,135,3.5,0.0,58,0.11,,SKC,0.21,WeatherDisplay:10.37,2013-03-24 06:35:00,
2013-03-24 02:37:00,48.2,34.5,27.75,ENE,68,1.1,1.1,59,0.11,RA,SKC,0.22,WeatherDisplay:10.37,2013-03-24 06:37:00,
2013-03-24 02:38:00,48.2,34.5,27.75,ENE,68,2.3,2.3,59,0.11,RA,SKC,0.22,WeatherDisplay:10.37,2013-03-24 06:38:00,
2013-03-24 02:40:00,48.2,34.5,27.74,SSW,202,5.8,5.8,59,0.11,RA,SKC,0.22,WeatherDisplay:10.37,2013-03-24 06:40:00,
2013-03-24 02:43:00,48.2,34.5,27.74,South,180,3.5,3.5,59,0.09,RA,SKC,0.22,WeatherDisplay:10.37,2013-03-24 06:43:00,
2013-03-24 02:44:00,48.2,34.5,27.74,SE,135,5.8,5.8,59,0.09,RA,SKC,0.22,WeatherDisplay:10.37,2013-03-24 06:44:00,
2013-03-24 02:46:00,48.4,34.7,27.74,ENE,68,6.9,0.0,59,0.09,RA,SKC,0.22,WeatherDisplay:10.37,2013-03-24 06:46:00,
2013-03-24 02:48:00,48.4,34.7,27.74,North,0,0.0,0.0,59,0.09,,SKC,0.22,WeatherDisplay:10.37,2013-03-24 06:48:00,
2013-03-24 02:49:00,48.4,34.7,27.74,SE,135,4.6,4.6,59,0.08,CLR,SKC,0.22,WeatherDisplay:10.37,2013-03-24 06:49:00,
2013-03-24 02:52:00,48.6,34.4,27.74,SSW,202,3.8,3.8,58,0.08,CLR,SKC,0.22,WeatherDisplay:10.37,2013-03-24 06:52:00,
2013-03-24 02:53:00,48.6,34.4,27.74,SE,135,3.5,3.5,58,0.08,CLR,SKC,0.22,WeatherDisplay:10.37,2013-03-24 06:53:00,
2013-03-24 02:54:00,48.6,34.4,27.74,SE,135,3.5,3.5,58,0.08,CLR,SKC,0.22,WeatherDisplay:10.37,2013-03-24 06:54:00,
2013-03-24 02:57:00,48.6,34.4,27.74,SSE,158,3.5,3.5,58,0.08,RA,SKC,0.24,WeatherDisplay:10.37,2013-03-24 06:57:00,
2013-03-24 02:58:00,48.6,34.4,27.74,NW,315,2.3,0.0,58,0.08,RA,SKC,0.24,WeatherDisplay:10.37,2013-03-24 06:58:00,
2013-03-24 02:59:00,48.6,34.4,27.74,NW,315,0.0,0.0,58,0.08,RA,SKC,0.24,WeatherDisplay:10.37,2013-03-24 06:59:00,
2013-03-24 03:02:00,48.4,34.3,27.75,SW,225,3.5,3.5,58,0.08,RA,SKC,0.24,WeatherDisplay:10.37,2013-03-24 07:02:00,
2013-03-24 03:03:00,48.4,34.3,27.74,SW,225,3.5,3.5,58,0.08,RA,SKC,0.24,WeatherDisplay:10.37,2013-03-24 07:03:00,
2013-03-24 03:04:00,48.4,34.3,27.75,SW,225,3.5,3.5,58,0.08,RA,SKC,0.24,WeatherDisplay:10.37,2013-03-24 07:04:00,
2013-03-24 03:07:00,48.4,34.3,27.74,SE,135,3.5,0.0,58,0.08,,SKC,0.24,WeatherDisplay:10.37,2013-03-24 07:07:00,
2013-03-24 03:08:00,48.4,34.3,27.74,SE,135,3.5,0.0,58,0.06,CLR,SKC,0.24,WeatherDisplay:10.37,2013-03-24 07:08:00,
2013-03-24 03:09:00,48.4,34.3,27.74,SE,135,0.0,0.0,58,0.06,CLR,SKC,0.24,WeatherDisplay:10.37,2013-03-24 07:09:00,
2013-03-24 03:13:00,48.2,34.5,27.75,SE,135,6.0,6.0,59,0.07,RA,SKC,0.25,WeatherDisplay:10.37,2013-03-24 07:13:00,
2013-03-24 03:14:00,48.2,34.5,27.75,SE,135,5.8,5.8,59,0.06,RA,SKC,0.25,WeatherDisplay:10.37,2013-03-24 07:14:00,
2013-03-24 03:18:00,48.2,34.5,27.74,SE,135,3.5,3.5,59,0.05,RA,SKC,0.25,WeatherDisplay:10.37,2013-03-24 07:18:00,
2013-03-24 03:19:00,48.2,34.5,27.74,SE,135,3.5,3.5,59,0.05,RA,SKC,0.25,WeatherDisplay:10.37,2013-03-24 07:19:00,
2013-03-24 03:20:00,48.2,34.5,27.74,South,180,5.8,5.8,59,0.05,RA,SKC,0.25,WeatherDisplay:10.37,2013-03-24 07:20:00,
2013-03-24 03:23:00,48.2,35.0,27.73,SSE,158,5.8,5.8,60,0.06,RA,SKC,0.26,WeatherDisplay:10.37,2013-03-24 07:23:00,
2013-03-24 03:24:00,48.2,35.0,27.73,ENE,68,5.8,5.8,60,0.07,RA,SKC,0.27,WeatherDisplay:10.37,2013-03-24 07:24:00,
2013-03-24 03:25:00,48.0,34.8,27.72,SE,135,6.9,6.9,60,0.06,RA,SKC,0.27,WeatherDisplay:10.37,2013-03-24 07:25:00,
2013-03-24 03:28:00,48.2,35.0,27.72,SE,135,5.8,5.8,60,0.07,RA,SKC,0.28,WeatherDisplay:10.37,2013-03-24 07:28:00,
2013-03-24 03:29:00,48.2,35.0,27.72,East,90,8.1,8.1,60,0.07,RA,SKC,0.28,WeatherDisplay:10.37,2013-03-24 07:29:00,
2013-03-24 03:30:00,48.2,35.0,27.72,SE,135,9.2,9.2,60,0.07,RA,SKC,0.28,WeatherDisplay:10.37,2013-03-24 07:30:00,
2013-03-24 03:33:00,48.2,35.0,27.72,SE,135,5.8,5.8,60,0.08,RA,SKC,0.30,WeatherDisplay:10.37,2013-03-24 07:33:00,
2013-03-24 03:34:00,48.2,35.0,27.72,SE,135,9.2,9.2,60,0.08,RA,SKC,0.30,WeatherDisplay:10.37,2013-03-24 07:34:00,
2013-03-24 03:35:00,48.2,35.0,27.72,SE,135,9.2,9.2,60,0.08,RA,SKC,0.31,WeatherDisplay:10.37,2013-03-24 07:35:00,
2013-03-24 03:38:00,48.2,35.0,27.72,SW,225,12.7,12.7,60,0.08,RA,SKC,0.31,WeatherDisplay:10.37,2013-03-24 07:38:00,
2013-03-24 03:40:00,48.2,35.0,27.72,South,180,9.2,9.2,60,0.08,RA,SKC,0.31,WeatherDisplay:10.37,2013-03-24 07:40:00,
2013-03-24 03:43:00,48.2,35.0,27.72,SE,135,17.3,17.3,60,0.09,RA,SKC,0.32,WeatherDisplay:10.37,2013-03-24 07:43:00,
2013-03-24 03:45:00,48.2,35.0,27.73,South,180,12.7,12.7,60,0.09,RA,SKC,0.32,WeatherDisplay:10.37,2013-03-24 07:45:00,
2013-03-24 03:49:00,48.0,34.4,27.73,SE,135,10.7,10.7,59,0.09,RA,SKC,0.32,WeatherDisplay:10.37,2013-03-24 07:49:00,
2013-03-24 03:50:00,48.0,34.4,27.72,SE,135,12.7,12.7,59,0.11,RA,SKC,0.33,WeatherDisplay:10.37,2013-03-24 07:50:00,
2013-03-24 03:52:00,48.0,34.4,27.72,SE,135,12.7,12.7,59,0.11,RA,SKC,0.33,WeatherDisplay:10.37,2013-03-24 07:52:00,
2013-03-24 03:54:00,48.0,34.8,27.72,SE,135,9.2,9.2,60,0.11,RA,SKC,0.33,WeatherDisplay:10.37,2013-03-24 07:54:00,
2013-03-24 03:55:00,48.0,34.8,27.71,SE,135,5.8,5.8,60,0.11,RA,SKC,0.34,WeatherDisplay:10.37,2013-03-24 07:55:00,
2013-03-24 03:57:00,48.0,34.8,27.72,South,180,8.3,8.3,60,0.11,RA,SKC,0.34,WeatherDisplay:10.37,2013-03-24 07:57:00,
2013-03-24 03:59:00,48.0,34.8,27.71,SE,135,9.8,9.8,60,0.11,RA,SKC,0.34,WeatherDisplay:10.37,2013-03-24 07:59:00,
2013-03-24 04:00:00,48.0,34.8,27.71,SE,135,10.4,10.4,60,0.11,RA,SKC,0.34,WeatherDisplay:10.37,2013-03-24 08:00:00,
2013-03-24 04:03:00,48.0,35.2,27.71,SE,135,9.2,9.2,61,0.12,RA,SKC,0.35,WeatherDisplay:10.37,2013-03-24 08:03:00,
2013-03-24 04:05:00,48.0,35.2,27.70,SE,135,9.2,9.2,61,0.12,RA,SKC,0.35,WeatherDisplay:10.37,2013-03-24 08:05:00,
2013-03-24 04:06:00,48.0,35.2,27.70,SE,135,9.2,9.2,61,0.12,RA,SKC,0.35,WeatherDisplay:10.37,2013-03-24 08:06:00,
2013-03-24 04:08:00,48.4,35.1,27.70,SE,135,10.4,10.4,60,0.13,RA,SKC,0.37,WeatherDisplay:10.37,2013-03-24 08:08:00,
2013-03-24 04:10:00,48.4,35.1,27.70,SE,135,11.5,11.5,60,0.13,RA,SKC,0.37,WeatherDisplay:10.37,2013-03-24 08:10:00,
2013-03-24 04:11:00,48.4,35.1,27.70,SE,135,9.2,9.2,60,0.13,RA,SKC,0.37,WeatherDisplay:10.37,2013-03-24 08:11:00,
2013-03-24 04:13:00,48.2,35.0,27.69,SE,135,10.4,10.4,60,0.13,RA,SKC,0.38,WeatherDisplay:10.37,2013-03-24 08:13:00,
2013-03-24 04:15:00,48.2,35.0,27.68,SE,135,10.4,10.4,60,0.13,RA,SKC,0.38,WeatherDisplay:10.37,2013-03-24 08:15:00,
2013-03-24 04:16:00,48.2,35.0,27.68,SE,135,12.7,12.7,60,0.13,RA,SKC,0.38,WeatherDisplay:10.37,2013-03-24 08:16:00,
2013-03-24 04:17:00,48.4,35.1,27.68,ENE,68,12.7,12.7,60,0.13,RA,SKC,0.38,WeatherDisplay:10.37,2013-03-24 08:17:00,
2013-03-24 04:18:00,48.4,35.1,27.68,SE,135,8.1,8.1,60,0.13,RA,SKC,0.38,WeatherDisplay:10.37,2013-03-24 08:18:00,
2013-03-24 04:20:00,48.4,35.1,27.67,SE,135,12.7,12.7,60,0.13,RA,SKC,0.38,WeatherDisplay:10.37,2013-03-24 08:20:00,
2013-03-24 04:22:00,48.4,35.1,27.66,SE,135,12.7,12.7,60,0.12,,SKC,0.38,WeatherDisplay:10.37,2013-03-24 08:22:00,
2013-03-24 04:24:00,48.4,35.1,27.65,ENE,68,8.1,8.1,60,0.11,CLR,SKC,0.38,WeatherDisplay:10.37,2013-03-24 08:24:00,
2013-03-24 04:25:00,48.6,35.3,27.64,SE,135,10.4,10.4,60,0.11,CLR,SKC,0.38,WeatherDisplay:10.37,2013-03-24 08:25:00,
2013-03-24 04:27:00,48.6,35.7,27.64,SE,135,10.4,10.4,61,0.11,CLR,SKC,0.38,WeatherDisplay:10.37,2013-03-24 08:27:00,
2013-03-24 04:29:00,49.1,36.2,27.63,SE,135,12.7,12.7,61,0.11,RA,SKC,0.39,WeatherDisplay:10.37,2013-03-24 08:29:00,
2013-03-24 04:32:00,49.6,36.3,27.63,ENE,68,10.4,10.4,60,0.09,RA,SKC,0.39,WeatherDisplay:10.37,2013-03-24 08:32:00,
2013-03-24 04:34:00,49.8,36.5,27.63,East,90,6.9,6.9,60,0.09,RA,SKC,0.39,WeatherDisplay:10.37,2013-03-24 08:34:00,
2013-03-24 04:37:00,50.0,36.2,27.62,East,90,12.7,12.7,59,0.08,RA,SKC,0.39,WeatherDisplay:10.37,2013-03-24 08:37:00,
2013-03-24 04:39:00,50.4,36.1,27.63,SE,135,5.8,6.9,58,0.08,,SKC,0.39,WeatherDisplay:10.37,2013-03-24 08:39:00,
2013-03-24 04:42:00,50.9,36.2,27.63,ENE,68,8.1,8.1,57,0.08,RA,SKC,0.40,WeatherDisplay:10.37,2013-03-24 08:42:00,
2013-03-24 04:44:00,50.7,35.6,27.63,West,270,8.1,8.1,56,0.08,RA,SKC,0.40,WeatherDisplay:10.37,2013-03-24 08:44:00,
2013-03-24 04:47:00,50.9,35.7,27.63,ENE,68,9.2,9.2,56,0.08,RA,SKC,0.40,WeatherDisplay:10.37,2013-03-24 08:47:00,
2013-03-24 04:48:00,50.9,35.7,27.64,ENE,68,3.5,3.5,56,0.08,RA,SKC,0.40,WeatherDisplay:10.37,2013-03-24 08:48:00,
2013-03-24 04:49:00,50.5,35.4,27.64,NE,45,3.5,3.5,56,0.09,RA,SKC,0.41,WeatherDisplay:10.37,2013-03-24 08:49:00,
2013-03-24 04:52:00,51.1,35.9,27.62,North,0,8.1,8.1,56,0.08,RA,SKC,0.41,WeatherDisplay:10.37,2013-03-24 08:52:00,
2013-03-24 04:54:00,51.3,35.6,27.62,ENE,68,6.9,6.9,55,0.08,RA,SKC,0.41,WeatherDisplay:10.37,2013-03-24 08:54:00,
2013-03-24 04:55:00,51.4,35.8,27.62,NE,45,6.9,6.9,55,0.08,RA,SKC,0.41,WeatherDisplay:10.37,2013-03-24 08:55:00,
2013-03-24 04:57:00,51.4,35.8,27.61,ENE,68,6.9,6.9,55,0.08,RA,SKC,0.43,WeatherDisplay:10.37,2013-03-24 08:57:00,
2013-03-24 04:58:00,51.4,35.8,27.61,ENE,68,6.9,6.9,55,0.08,RA,SKC,0.43,WeatherDisplay:10.37,2013-03-24 08:58:00,
2013-03-24 04:59:00,51.4,35.8,27.61,NE,45,5.8,5.8,55,0.08,RA,SKC,0.43,WeatherDisplay:10.37,2013-03-24 08:59:00,
2013-03-24 05:00:00,51.4,35.8,27.61,NE,45,5.8,5.8,55,0.08,RA,SKC,0.43,WeatherDisplay:10.37,2013-03-24 09:00:00,
2013-03-24 05:02:00,51.4,35.8,27.61,ENE,68,3.5,3.5,55,0.07,RA,SKC,0.43,WeatherDisplay:10.37,2013-03-24 09:02:00,
2013-03-24 05:03:00,51.4,35.8,27.61,ENE,68,3.5,3.5,55,0.07,RA,SKC,0.43,WeatherDisplay:10.37,2013-03-24 09:03:00,
2013-03-24 05:04:00,51.4,35.8,27.61,ENE,68,3.5,3.5,55,0.07,RA,SKC,0.43,WeatherDisplay:10.37,2013-03-24 09:04:00,
2013-03-24 05:05:00,51.4,35.8,27.61,ENE,68,3.5,3.5,55,0.07,RA,SKC,0.43,WeatherDisplay:10.37,2013-03-24 09:05:00,
2013-03-24 05:08:00,51.4,36.3,27.61,NE,45,3.5,3.5,56,0.07,RA,SKC,0.44,WeatherDisplay:10.37,2013-03-24 09:08:00,
2013-03-24 05:10:00,51.4,36.3,27.60,North,0,3.5,3.5,56,0.07,RA,SKC,0.44,WeatherDisplay:10.37,2013-03-24 09:10:00,
2013-03-24 05:13:00,51.3,36.1,27.60,NE,45,2.3,0.0,56,0.06,RA,SKC,0.44,WeatherDisplay:10.37,2013-03-24 09:13:00,
2013-03-24 05:15:00,51.3,36.1,27.61,NE,45,1.1,0.0,56,0.06,RA,SKC,0.44,WeatherDisplay:10.37,2013-03-24 09:15:00,
2013-03-24 05:18:00,51.3,36.1,27.61,West,270,3.5,3.5,56,0.06,,SKC,0.44,WeatherDisplay:10.37,2013-03-24 09:18:00,
2013-03-24 05:20:00,51.1,36.4,27.61,West,270,2.3,0.0,57,0.07,RA,SKC,0.45,WeatherDisplay:10.37,2013-03-24 09:20:00,
2013-03-24 05:22:00,51.1,36.4,27.60,West,270,0.0,0.0,57,0.07,RA,SKC,0.45,WeatherDisplay:10.37,2013-03-24 09:22:00,
2013-03-24 05:23:00,50.9,36.2,27.60,West,270,1.1,0.0,57,0.07,RA,SKC,0.45,WeatherDisplay:10.37,2013-03-24 09:23:00,
2013-03-24 05:24:00,50.9,36.2,27.60,West,270,0.0,0.0,57,0.07,RA,SKC,0.45,WeatherDisplay:10.37,2013-03-24 09:24:00,
2013-03-24 05:25:00,50.9,36.2,27.61,West,270,0.0,0.0,57,0.08,RA,SKC,0.46,WeatherDisplay:10.37,2013-03-24 09:25:00,
2013-03-24 05:27:00,50.7,36.0,27.61,West,270,0.0,0.0,57,0.08,RA,SKC,0.46,WeatherDisplay:10.37,2013-03-24 09:27:00,
2013-03-24 05:29:00,50.7,36.0,27.60,SE,135,0.7,0.0,57,0.07,RA,SKC,0.47,WeatherDisplay:10.37,2013-03-24 09:29:00,
2013-03-24 05:31:00,50.7,36.0,27.60,SE,135,0.0,0.0,57,0.08,RA,SKC,0.48,WeatherDisplay:10.37,2013-03-24 09:31:00,
2013-03-24 05:32:00,50.7,36.0,27.59,SE,135,0.0,0.0,57,0.09,RA,SKC,0.48,WeatherDisplay:10.37,2013-03-24 09:32:00,
2013-03-24 05:34:00,50.7,36.0,27.59,SE,135,0.0,0.0,57,0.09,RA,SKC,0.48,WeatherDisplay:10.37,2013-03-24 09:34:00,
2013-03-24 05:37:00,50.5,36.3,27.58,NE,45,0.0,0.0,58,0.09,RA,SKC,0.48,WeatherDisplay:10.37,2013-03-24 09:37:00,
2013-03-24 05:38:00,50.4,36.1,27.58,NE,45,1.1,0.0,58,0.09,RA,SKC,0.50,WeatherDisplay:10.37,2013-03-24 09:38:00,
2013-03-24 05:39:00,50.4,36.6,27.58,North,0,1.1,0.0,59,0.11,RA,SKC,0.50,WeatherDisplay:10.37,2013-03-24 09:39:00,
2013-03-24 05:42:00,50.2,36.8,27.58,NW,315,2.3,2.3,60,0.09,RA,SKC,0.50,WeatherDisplay:10.37,2013-03-24 09:42:00,
2013-03-24 05:43:00,50.2,36.8,27.58,NW,315,2.3,0.0,60,0.09,RA,SKC,0.50,WeatherDisplay:10.37,2013-03-24 09:43:00,
2013-03-24 05:44:00,50.0,37.1,27.57,NW,315,0.0,0.0,61,0.09,RA,SKC,0.50,WeatherDisplay:10.37,2013-03-24 09:44:00,
2013-03-24 05:47:00,50.0,37.5,27.57,West,270,0.0,1.6,62,0.09,RA,SKC,0.51,WeatherDisplay:10.37,2013-03-24 09:47:00,
2013-03-24 05:48:00,50.0,37.5,27.58,West,270,3.5,3.5,62,0.11,RA,SKC,0.51,WeatherDisplay:10.37,2013-03-24 09:48:00,
2013-03-24 05:49:00,50.0,37.5,27.58,South,180,3.5,0.0,62,0.09,RA,SKC,0.51,WeatherDisplay:10.37,2013-03-24 09:49:00,
2013-03-24 05:52:00,50.0,37.9,27.59,North,0,3.5,3.5,63,0.09,RA,SKC,0.51,WeatherDisplay:10.37,2013-03-24 09:52:00,
2013-03-24 05:53:00,50.0,37.9,27.59,North,0,3.5,3.5,63,0.09,RA,SKC,0.51,WeatherDisplay:10.37,2013-03-24 09:53:00,
2013-03-24 05:54:00,50.0,37.9,27.59,South,180,3.5,0.0,63,0.09,RA,SKC,0.51,WeatherDisplay:10.37,2013-03-24 09:54:00,
2013-03-24 05:55:00,49.8,37.7,27.59,South,180,3.5,0.0,63,0.09,RA,SKC,0.51,WeatherDisplay:10.37,2013-03-24 09:55:00,
2013-03-24 05:58:00,49.8,37.7,27.60,SW,225,4.6,4.6,63,0.08,,SKC,0.51,WeatherDisplay:10.37,2013-03-24 09:58:00,
2013-03-24 05:59:00,49.8,37.7,27.60,NW,315,3.5,0.0,63,0.08,,SKC,0.51,WeatherDisplay:10.37,2013-03-24 09:59:00,
2013-03-24 06:00:00,49.8,37.7,27.60,WSW,237,0.0,5.0,63,0.00,CLR,SKC,0.51,WeatherDisplay:10.37,2013-03-24 10:00:00,
2013-03-24 06:03:00,49.8,37.7,27.61,South,180,3.5,3.5,63,0.08,CLR,SKC,0.51,WeatherDisplay:10.37,2013-03-24 10:03:00,
2013-03-24 06:04:00,49.8,37.7,27.62,South,180,3.5,3.5,63,0.08,CLR,SKC,0.51,WeatherDisplay:10.37,2013-03-24 10:04:00,
2013-03-24 06:05:00,49.8,37.7,27.62,South,180,3.5,3.5,63,0.08,CLR,SKC,0.51,WeatherDisplay:10.37,2013-03-24 10:05:00,
2013-03-24 06:08:00,50.0,38.3,27.62,SW,225,3.5,0.0,64,0.09,RA,SKC,0.53,WeatherDisplay:10.37,2013-03-24 10:08:00,
2013-03-24 06:09:00,50.0,38.3,27.62,SW,225,0.0,0.0,64,0.09,RA,SKC,0.53,WeatherDisplay:10.37,2013-03-24 10:09:00,
2013-03-24 06:10:00,50.0,38.3,27.62,NW,315,1.1,0.0,64,0.11,RA,SKC,0.54,WeatherDisplay:10.37,2013-03-24 10:10:00,
2013-03-24 06:13:00,50.0,38.3,27.62,North,0,2.3,2.3,64,0.12,RA,SKC,0.56,WeatherDisplay:10.37,2013-03-24 10:13:00,
2013-03-24 06:14:00,49.8,38.5,27.62,North,0,3.5,3.5,65,0.12,RA,SKC,0.57,WeatherDisplay:10.37,2013-03-24 10:14:00,
2013-03-24 06:15:00,49.8,38.5,27.62,NNW,338,4.6,4.6,65,0.13,RA,SKC,0.57,WeatherDisplay:10.37,2013-03-24 10:15:00,
2013-03-24 06:18:00,49.8,38.5,27.64,NW,315,4.6,4.6,65,0.13,RA,SKC,0.57,WeatherDisplay:10.37,2013-03-24 10:18:00,
2013-03-24 06:19:00,49.8,38.5,27.64,SE,135,4.6,0.0,65,0.14,RA,SKC,0.58,WeatherDisplay:10.37,2013-03-24 10:19:00,
2013-03-24 06:20:00,49.6,38.3,27.64,NW,315,2.3,0.0,65,0.13,RA,SKC,0.58,WeatherDisplay:10.37,2013-03-24 10:20:00,
2013-03-24 06:23:00,49.6,38.3,27.64,NW,315,4.6,4.6,65,0.14,RA,SKC,0.60,WeatherDisplay:10.37,2013-03-24 10:23:00,
2013-03-24 06:24:00,49.6,38.3,27.65,NW,315,4.6,4.6,65,0.15,RA,SKC,0.60,WeatherDisplay:10.37,2013-03-24 10:24:00,
2013-03-24 06:25:00,49.6,38.3,27.64,SW,225,4.6,0.0,65,0.14,RA,SKC,0.60,WeatherDisplay:10.37,2013-03-24 10:25:00,
2013-03-24 06:28:00,49.6,38.3,27.65,NE,45,1.1,0.0,65,0.17,RA,SKC,0.63,WeatherDisplay:10.37,2013-03-24 10:28:00,
2013-03-24 06:29:00,49.6,38.3,27.66,SW,225,5.8,5.8,65,0.15,RA,SKC,0.64,WeatherDisplay:10.37,2013-03-24 10:29:00,
2013-03-24 06:30:00,49.6,38.3,27.66,SE,135,5.8,0.0,65,0.17,RA,SKC,0.64,WeatherDisplay:10.37,2013-03-24 10:30:00,
2013-03-24 06:31:00,49.6,38.3,27.66,SE,135,3.5,0.0,65,0.17,RA,SKC,0.64,WeatherDisplay:10.37,2013-03-24 10:31:00,
2013-03-24 06:33:00,49.6,38.3,27.67,SE,135,2.3,0.0,65,0.17,RA,SKC,0.66,WeatherDisplay:10.37,2013-03-24 10:33:00,
2013-03-24 06:35:00,49.6,38.7,27.67,SE,135,1.1,0.0,66,0.18,RA,SKC,0.67,WeatherDisplay:10.37,2013-03-24 10:35:00,
2013-03-24 06:36:00,49.6,38.7,27.67,South,180,1.1,0.0,66,0.19,RA,SKC,0.67,WeatherDisplay:10.37,2013-03-24 10:36:00,
2013-03-24 06:40:00,49.6,38.7,27.67,South,180,3.5,0.0,66,0.20,RA,SKC,0.71,WeatherDisplay:10.37,2013-03-24 10:40:00,
2013-03-24 06:41:00,49.6,38.7,27.68,ENE,68,0.0,0.0,66,0.21,RA,SKC,0.71,WeatherDisplay:10.37,2013-03-24 10:41:00,
2013-03-24 06:44:00,49.6,38.7,27.67,East,88,0.0,3.0,66,0.01,RA,SKC,0.73,WeatherDisplay:10.37,2013-03-24 10:44:00,
2013-03-24 06:45:00,49.6,38.7,27.68,ENE,68,1.1,0.0,66,0.24,RA,SKC,0.73,WeatherDisplay:10.37,2013-03-24 10:45:00,
2013-03-24 06:47:00,49.6,38.7,27.67,ENE,68,0.0,0.0,66,0.25,RA,SKC,0.74,WeatherDisplay:10.37,2013-03-24 10:47:00,
2013-03-24 06:49:00,49.6,38.7,27.68,East,90,1.1,0.0,66,0.25,RA,SKC,0.77,WeatherDisplay:10.37,2013-03-24 10:49:00,
2013-03-24 06:50:00,49.6,38.7,27.68,East,90,0.0,0.0,66,0.26,RA,SKC,0.77,WeatherDisplay:10.37,2013-03-24 10:50:00,
2013-03-24 06:52:00,49.6,38.7,27.68,SE,135,2.3,0.0,66,0.27,RA,SKC,0.78,WeatherDisplay:10.37,2013-03-24 10:52:00,
2013-03-24 06:55:00,49.6,38.7,27.66,SE,135,3.5,0.0,66,0.30,RA,SKC,0.80,WeatherDisplay:10.37,2013-03-24 10:55:00,
2013-03-24 06:57:00,49.6,38.7,27.66,SE,135,1.1,0.0,66,0.30,RA,SKC,0.81,WeatherDisplay:10.37,2013-03-24 10:57:00,
2013-03-24 07:00:00,49.6,38.7,27.65,SE,135,2.3,2.3,66,0.32,RA,SKC,0.83,WeatherDisplay:10.37,2013-03-24 11:00:00,
2013-03-24 07:02:00,49.6,38.7,27.62,ENE,68,2.3,2.3,66,0.32,RA,SKC,0.83,WeatherDisplay:10.37,2013-03-24 11:02:00,
2013-03-24 07:05:00,49.6,38.7,27.62,ENE,68,2.3,2.3,66,0.32,RA,SKC,0.83,WeatherDisplay:10.37,2013-03-24 11:05:00,
2013-03-24 07:06:00,49.6,38.7,27.62,ENE,68,2.3,2.3,66,0.32,RA,SKC,0.83,WeatherDisplay:10.37,2013-03-24 11:06:00,
2013-03-24 07:07:00,49.6,38.7,27.62,ENE,68,2.3,2.3,66,0.32,RA,SKC,0.83,WeatherDisplay:10.37,2013-03-24 11:07:00,
2013-03-24 07:10:00,49.6,39.1,27.62,SE,135,0.0,0.0,67,0.32,RA,SKC,0.86,WeatherDisplay:10.37,2013-03-24 11:10:00,
2013-03-24 07:11:00,49.6,39.1,27.62,SE,135,0.0,0.0,67,0.32,RA,SKC,0.86,WeatherDisplay:10.37,2013-03-24 11:11:00,
2013-03-24 07:13:00,49.6,39.1,27.61,SE,135,0.0,0.0,67,0.31,RA,SKC,0.86,WeatherDisplay:10.37,2013-03-24 11:13:00,
2013-03-24 07:15:00,49.6,39.1,27.60,NE,45,3.5,3.5,67,0.30,RA,SKC,0.86,WeatherDisplay:10.37,2013-03-24 11:15:00,
2013-03-24 07:16:00,49.6,39.1,27.60,NE,45,3.5,0.0,67,0.30,RA,SKC,0.86,WeatherDisplay:10.37,2013-03-24 11:16:00,
2013-03-24 07:18:00,49.6,39.1,27.60,NW,315,2.3,0.0,67,0.30,RA,SKC,0.86,WeatherDisplay:10.37,2013-03-24 11:18:00,
2013-03-24 07:21:00,49.6,39.1,27.61,NW,315,0.0,0.0,67,0.28,,SKC,0.86,WeatherDisplay:10.37,2013-03-24 11:21:00,
2013-03-24 07:23:00,49.8,39.3,27.61,South,180,0.0,0.0,67,0.27,CLR,SKC,0.86,WeatherDisplay:10.37,2013-03-24 11:23:00,
2013-03-24 07:26:00,49.8,39.3,27.61,NW,315,0.0,0.0,67,0.25,CLR,SKC,0.86,WeatherDisplay:10.37,2013-03-24 11:26:00,
2013-03-24 07:27:00,49.8,39.3,27.61,NE,45,5.8,5.8,67,0.25,CLR,SKC,0.86,WeatherDisplay:10.37,2013-03-24 11:27:00,
2013-03-24 07:29:00,49.8,39.7,27.60,North,0,3.5,0.0,68,0.24,CLR,SKC,0.86,WeatherDisplay:10.37,2013-03-24 11:29:00,
2013-03-24 07:31:00,49.8,39.3,27.60,North,0,3.8,3.8,67,0.22,CLR,SKC,0.86,WeatherDisplay:10.37,2013-03-24 11:31:00,
2013-03-24 07:32:00,49.8,39.3,27.60,NW,315,3.5,3.5,67,0.21,CLR,SKC,0.86,WeatherDisplay:10.37,2013-03-24 11:32:00,
2013-03-24 07:33:00,49.8,39.3,27.60,NW,315,3.5,3.5,67,0.21,CLR,SKC,0.86,WeatherDisplay:10.37,2013-03-24 11:33:00,
2013-03-24 07:34:00,49.8,39.3,27.60,NW,315,3.5,3.5,67,0.20,CLR,SKC,0.86,WeatherDisplay:10.37,2013-03-24 11:34:00,
2013-03-24 07:37:00,49.8,39.7,27.60,NW,315,0.0,0.0,68,0.18,CLR,SKC,0.86,WeatherDisplay:10.37,2013-03-24 11:37:00,
2013-03-24 07:38:00,49.8,39.7,27.60,NW,315,1.1,0.0,68,0.18,CLR,SKC,0.86,WeatherDisplay:10.37,2013-03-24 11:38:00,
2013-03-24 07:39:00,49.8,39.7,27.60,NW,315,1.1,0.0,68,0.17,CLR,SKC,0.86,WeatherDisplay:10.37,2013-03-24 11:39:00,
2013-03-24 07:42:00,49.8,39.7,27.59,NW,315,0.0,0.0,68,0.14,CLR,SKC,0.86,WeatherDisplay:10.37,2013-03-24 11:42:00,
2013-03-24 07:43:00,49.8,39.7,27.60,NW,315,0.0,0.0,68,0.14,CLR,SKC,0.86,WeatherDisplay:10.37,2013-03-24 11:43:00,
2013-03-24 07:44:00,49.8,39.7,27.60,NW,315,0.0,0.0,68,0.14,CLR,SKC,0.86,WeatherDisplay:10.37,2013-03-24 11:44:00,
2013-03-24 07:47:00,49.8,39.7,27.60,North,0,0.0,0.0,68,0.12,CLR,SKC,0.86,WeatherDisplay:10.37,2013-03-24 11:47:00,
2013-03-24 07:48:00,49.8,39.7,27.60,North,0,0.0,0.0,68,0.12,CLR,SKC,0.86,WeatherDisplay:10.37,2013-03-24 11:48:00,
2013-03-24 07:49:00,49.6,39.5,27.60,North,0,0.0,0.0,68,0.11,CLR,SKC,0.86,WeatherDisplay:10.37,2013-03-24 11:49:00,
2013-03-24 07:52:00,49.6,39.5,27.60,North,0,0.0,0.0,68,0.08,CLR,SKC,0.86,WeatherDisplay:10.37,2013-03-24 11:52:00,
2013-03-24 07:53:00,49.6,39.5,27.60,North,0,0.0,0.0,68,0.08,CLR,SKC,0.86,WeatherDisplay:10.37,2013-03-24 11:53:00,
2013-03-24 07:54:00,49.6,39.9,27.61,SE,135,0.0,0.0,69,0.07,CLR,SKC,0.86,WeatherDisplay:10.37,2013-03-24 11:54:00,
2013-03-24 07:57:00,49.6,39.9,27.61,SE,135,0.0,0.0,69,0.06,CLR,SKC,0.86,WeatherDisplay:10.37,2013-03-24 11:57:00,
2013-03-24 07:58:00,49.6,39.9,27.62,SE,135,0.0,0.0,69,0.05,CLR,SKC,0.86,WeatherDisplay:10.37,2013-03-24 11:58:00,
2013-03-24 07:59:00,49.6,39.9,27.62,SE,135,0.0,0.0,69,0.05,CLR,SKC,0.86,WeatherDisplay:10.37,2013-03-24 11:59:00,
2013-03-24 08:03:00,49.8,40.1,27.62,SE,135,0.0,0.0,69,0.04,CLR,SKC,0.86,WeatherDisplay:10.37,2013-03-24 12:03:00,
2013-03-24 08:04:00,49.8,40.1,27.61,SE,135,0.0,0.0,69,0.04,CLR,SKC,0.86,WeatherDisplay:10.37,2013-03-24 12:04:00,
2013-03-24 08:08:00,49.6,39.9,27.61,SE,135,0.0,0.0,69,0.04,CLR,SKC,0.86,WeatherDisplay:10.37,2013-03-24 12:08:00,
2013-03-24 08:09:00,49.6,39.9,27.62,SE,135,0.0,0.0,69,0.00,CLR,SKC,0.86,WeatherDisplay:10.37,2013-03-24 12:09:00,
2013-03-24 08:10:00,49.6,39.9,27.62,SE,135,0.0,0.0,69,0.00,CLR,SKC,0.86,WeatherDisplay:10.37,2013-03-24 12:10:00,
2013-03-24 08:13:00,49.6,39.9,27.62,North,0,0.0,0.0,69,0.00,CLR,SKC,0.86,WeatherDisplay:10.37,2013-03-24 12:13:00,
2013-03-24 08:15:00,49.5,39.7,27.62,NNE,22,0.0,0.0,69,0.00,CLR,SKC,0.86,WeatherDisplay:10.37,2013-03-24 12:15:00,
2013-03-24 08:18:00,49.5,39.7,27.61,NNE,22,0.0,0.0,69,0.00,CLR,SKC,0.86,WeatherDisplay:10.37,2013-03-24 12:18:00,
2013-03-24 08:20:00,49.5,39.7,27.61,NNE,22,0.0,0.0,69,0.00,CLR,SKC,0.86,WeatherDisplay:10.37,2013-03-24 12:20:00,
2013-03-24 08:23:00,49.3,39.5,27.60,NE,45,0.0,0.0,69,0.00,CLR,SKC,0.86,WeatherDisplay:10.37,2013-03-24 12:23:00,
2013-03-24 08:25:00,49.3,39.5,27.61,NE,45,1.1,0.0,69,0.00,CLR,SKC,0.86,WeatherDisplay:10.37,2013-03-24 12:25:00,
2013-03-24 08:26:00,49.3,39.5,27.61,NE,45,0.0,0.0,69,0.00,CLR,SKC,0.87,WeatherDisplay:10.37,2013-03-24 12:26:00,
2013-03-24 08:28:00,49.3,39.5,27.61,NE,45,0.0,0.0,69,0.01,RA,SKC,0.87,WeatherDisplay:10.37,2013-03-24 12:28:00,
2013-03-24 08:30:00,49.3,39.5,27.61,North,0,0.0,1.6,69,0.01,RA,SKC,0.87,WeatherDisplay:10.37,2013-03-24 12:30:00,
2013-03-24 08:32:00,49.1,39.4,27.61,North,0,3.5,0.0,69,0.01,RA,SKC,0.87,WeatherDisplay:10.37,2013-03-24 12:32:00,
2013-03-24 08:34:00,49.1,39.4,27.61,North,0,1.1,0.0,69,0.01,RA,SKC,0.87,WeatherDisplay:10.37,2013-03-24 12:34:00,
2013-03-24 08:35:00,49.1,39.4,27.61,North,0,1.1,0.0,69,0.01,RA,SKC,0.87,WeatherDisplay:10.37,2013-03-24 12:35:00,
2013-03-24 08:37:00,49.1,39.4,27.61,North,0,0.0,1.6,69,0.01,,SKC,0.87,WeatherDisplay:10.37,2013-03-24 12:37:00,
2013-03-24 08:39:00,49.1,39.4,27.61,North,0,5.8,5.8,69,0.01,CLR,SKC,0.87,WeatherDisplay:10.37,2013-03-24 12:39:00,
2013-03-24 08:40:00,49.1,39.4,27.61,North,0,5.8,5.8,69,0.01,CLR,SKC,0.87,WeatherDisplay:10.37,2013-03-24 12:40:00,
2013-03-24 08:43:00,49.1,39.4,27.62,North,0,3.5,0.0,69,0.01,CLR,SKC,0.87,WeatherDisplay:10.37,2013-03-24 12:43:00,
2013-03-24 08:44:00,49.1,39.4,27.62,North,0,1.1,0.0,69,0.01,CLR,SKC,0.87,WeatherDisplay:10.37,2013-03-24 12:44:00,
2013-03-24 08:45:00,49.3,39.5,27.62,North,0,1.1,0.0,69,0.01,CLR,SKC,0.87,WeatherDisplay:10.37,2013-03-24 12:45:00,
2013-03-24 08:48:00,49.3,39.5,27.62,North,0,0.0,0.0,69,0.01,CLR,SKC,0.87,WeatherDisplay:10.37,2013-03-24 12:48:00,
2013-03-24 08:49:00,49.3,39.5,27.61,North,0,0.0,0.0,69,0.01,CLR,SKC,0.87,WeatherDisplay:10.37,2013-03-24 12:49:00,
2013-03-24 08:50:00,49.3,39.5,27.61,North,0,0.0,0.0,69,0.01,CLR,SKC,0.87,WeatherDisplay:10.37,2013-03-24 12:50:00,
2013-03-24 08:53:00,49.5,39.7,27.61,North,0,0.0,0.0,69,0.02,RA,SKC,0.89,WeatherDisplay:10.37,2013-03-24 12:53:00,
2013-03-24 08:54:00,49.5,39.7,27.61,North,0,0.0,0.0,69,0.02,RA,SKC,0.89,WeatherDisplay:10.37,2013-03-24 12:54:00,
2013-03-24 08:56:00,49.5,39.7,27.61,North,0,0.0,0.0,69,0.02,RA,SKC,0.89,WeatherDisplay:10.37,2013-03-24 12:56:00,
2013-03-24 08:59:00,49.5,39.7,27.60,North,0,0.0,0.0,69,0.02,RA,SKC,0.89,WeatherDisplay:10.37,2013-03-24 12:59:00,
2013-03-24 09:00:00,49.5,39.7,27.60,North,0,0.0,0.0,69,0.02,RA,SKC,0.89,WeatherDisplay:10.37,2013-03-24 13:00:00,
2013-03-24 09:02:00,49.6,39.9,27.61,North,0,0.0,0.0,69,0.02,RA,SKC,0.89,WeatherDisplay:10.37,2013-03-24 13:02:00,
2013-03-24 09:04:00,49.6,39.9,27.61,North,0,0.0,0.0,69,0.02,,SKC,0.89,WeatherDisplay:10.37,2013-03-24 13:04:00,
2013-03-24 09:05:00,49.6,39.9,27.61,North,0,0.0,0.0,69,0.02,CLR,SKC,0.89,WeatherDisplay:10.37,2013-03-24 13:05:00,
2013-03-24 09:07:00,49.6,39.9,27.61,North,0,0.0,0.0,69,0.02,CLR,SKC,0.89,WeatherDisplay:10.37,2013-03-24 13:07:00,
2013-03-24 09:09:00,49.8,40.1,27.61,North,0,0.0,0.0,69,0.04,RA,SKC,0.90,WeatherDisplay:10.37,2013-03-24 13:09:00,
2013-03-24 09:10:00,49.8,40.1,27.61,North,0,0.0,0.0,69,0.04,RA,SKC,0.90,WeatherDisplay:10.37,2013-03-24 13:10:00,
2013-03-24 09:12:00,49.8,40.4,27.61,North,0,0.0,0.0,70,0.04,RA,SKC,0.90,WeatherDisplay:10.37,2013-03-24 13:12:00,
2013-03-24 09:14:00,50.0,40.2,27.61,North,0,0.0,0.0,69,0.04,RA,SKC,0.90,WeatherDisplay:10.37,2013-03-24 13:14:00,
2013-03-24 09:15:00,50.0,40.2,27.61,North,0,0.0,0.0,69,0.04,RA,SKC,0.90,WeatherDisplay:10.37,2013-03-24 13:15:00,
2013-03-24 09:17:00,50.0,40.2,27.61,North,0,0.0,0.0,69,0.04,RA,SKC,0.90,WeatherDisplay:10.37,2013-03-24 13:17:00,
2013-03-24 09:19:00,50.0,40.6,27.61,North,0,0.0,0.0,70,0.04,,SKC,0.90,WeatherDisplay:10.37,2013-03-24 13:19:00,
2013-03-24 09:20:00,50.0,40.2,27.62,North,0,0.0,0.0,69,0.04,CLR,SKC,0.90,WeatherDisplay:10.37,2013-03-24 13:20:00,
2013-03-24 09:23:00,50.0,40.6,27.62,North,0,0.0,0.0,70,0.05,RA,SKC,0.91,WeatherDisplay:10.37,2013-03-24 13:23:00,
2013-03-24 09:25:00,50.0,40.6,27.62,North,0,0.0,0.0,70,0.05,RA,SKC,0.91,WeatherDisplay:10.37,2013-03-24 13:25:00,
2013-03-24 09:28:00,50.2,40.8,27.61,North,0,0.0,0.0,70,0.04,RA,SKC,0.91,WeatherDisplay:10.37,2013-03-24 13:28:00,
2013-03-24 09:30:00,50.2,40.8,27.61,North,0,0.0,0.0,70,0.00,RA,SKC,0.91,WeatherDisplay:10.37,2013-03-24 13:30:00,
2013-03-24 09:33:00,50.2,40.8,27.61,North,0,0.0,0.0,70,0.04,,SKC,0.91,WeatherDisplay:10.37,2013-03-24 13:33:00,
2013-03-24 09:34:00,50.4,40.9,27.61,North,0,0.0,0.0,70,0.04,CLR,SKC,0.91,WeatherDisplay:10.37,2013-03-24 13:34:00,
2013-03-24 09:35:00,50.4,40.9,27.61,North,0,0.0,0.0,70,0.04,CLR,SKC,0.91,WeatherDisplay:10.37,2013-03-24 13:35:00,
2013-03-24 09:36:00,50.4,40.9,27.60,North,0,0.0,0.0,70,0.04,CLR,SKC,0.91,WeatherDisplay:10.37,2013-03-24 13:36:00,
2013-03-24 09:38:00,50.4,40.9,27.60,North,0,0.0,0.0,70,0.04,CLR,SKC,0.91,WeatherDisplay:10.37,2013-03-24 13:38:00,
2013-03-24 09:40:00,50.4,40.9,27.60,North,0,0.0,0.0,70,0.04,CLR,SKC,0.91,WeatherDisplay:10.37,2013-03-24 13:40:00,
2013-03-24 09:42:00,50.5,41.1,27.60,North,0,1.1,0.0,70,0.04,CLR,SKC,0.91,WeatherDisplay:10.37,2013-03-24 13:42:00,
2013-03-24 09:43:00,50.4,40.9,27.60,North,0,1.1,0.0,70,0.04,CLR,SKC,0.91,WeatherDisplay:10.37,2013-03-24 13:43:00,
2013-03-24 09:45:00,50.5,41.1,27.60,North,0,0.0,0.0,70,0.05,RA,SKC,0.92,WeatherDisplay:10.37,2013-03-24 13:45:00,
2013-03-24 09:48:00,50.5,41.1,27.61,North,0,0.0,0.0,70,0.05,RA,SKC,0.92,WeatherDisplay:10.37,2013-03-24 13:48:00,
2013-03-24 09:50:00,50.4,40.9,27.61,North,0,0.0,0.0,70,0.05,RA,SKC,0.92,WeatherDisplay:10.37,2013-03-24 13:50:00,
2013-03-24 09:52:00,50.4,40.9,27.61,North,0,0.0,0.0,70,0.05,RA,SKC,0.92,WeatherDisplay:10.37,2013-03-24 13:52:00,
2013-03-24 09:53:00,50.4,40.9,27.61,North,0,0.0,0.0,70,0.04,RA,SKC,0.92,WeatherDisplay:10.37,2013-03-24 13:53:00,
2013-03-24 09:57:00,50.7,41.3,27.60,North,0,0.0,0.0,70,0.04,CLR,SKC,0.92,WeatherDisplay:10.37,2013-03-24 13:57:00,
2013-03-24 09:58:00,50.7,41.3,27.61,North,0,0.0,0.0,70,0.04,CLR,SKC,0.92,WeatherDisplay:10.37,2013-03-24 13:58:00,
2013-03-24 10:02:00,50.9,41.5,27.61,North,0,0.0,0.0,70,0.04,CLR,SKC,0.92,WeatherDisplay:10.37,2013-03-24 14:02:00,
2013-03-24 10:03:00,50.9,41.5,27.61,North,0,0.0,0.0,70,0.04,CLR,SKC,0.92,WeatherDisplay:10.37,2013-03-24 14:03:00,
2013-03-24 10:07:00,50.9,41.5,27.61,North,0,0.0,0.0,70,0.04,CLR,SKC,0.92,WeatherDisplay:10.37,2013-03-24 14:07:00,
2013-03-24 10:08:00,50.9,41.5,27.61,West,270,0.0,0.0,70,0.04,RA,SKC,0.93,WeatherDisplay:10.37,2013-03-24 14:08:00,
2013-03-24 10:09:00,50.7,41.3,27.61,West,270,0.0,0.0,70,0.04,RA,SKC,0.93,WeatherDisplay:10.37,2013-03-24 14:09:00,
2013-03-24 10:13:00,50.9,41.5,27.61,West,270,0.0,0.0,70,0.04,RA,SKC,0.93,WeatherDisplay:10.37,2013-03-24 14:13:00,
2013-03-24 10:14:00,50.9,41.5,27.61,West,270,0.0,0.0,70,0.04,RA,SKC,0.93,WeatherDisplay:10.37,2013-03-24 14:14:00,
2013-03-24 10:18:00,50.9,41.5,27.61,West,270,0.0,0.0,70,0.04,,SKC,0.93,WeatherDisplay:10.37,2013-03-24 14:18:00,
2013-03-24 10:19:00,51.1,41.6,27.61,SE,135,0.0,0.0,70,0.05,RA,SKC,0.94,WeatherDisplay:10.37,2013-03-24 14:19:00,
2013-03-24 10:23:00,51.1,41.6,27.62,SW,225,0.0,0.0,70,0.04,RA,SKC,0.94,WeatherDisplay:10.37,2013-03-24 14:23:00,
2013-03-24 10:24:00,51.3,41.8,27.62,SW,225,0.0,0.0,70,0.04,RA,SKC,0.94,WeatherDisplay:10.37,2013-03-24 14:24:00,
2013-03-24 10:25:00,51.3,41.8,27.62,NW,315,0.0,0.0,70,0.04,RA,SKC,0.94,WeatherDisplay:10.37,2013-03-24 14:25:00,
2013-03-24 10:28:00,51.3,41.8,27.62,NW,315,0.0,0.0,70,0.04,RA,SKC,0.94,WeatherDisplay:10.37,2013-03-24 14:28:00,
2013-03-24 10:29:00,51.3,41.8,27.62,NW,315,0.0,0.0,70,0.04,,SKC,0.94,WeatherDisplay:10.37,2013-03-24 14:29:00,
2013-03-24 10:30:00,51.3,41.8,27.62,WNW,283,0.0,0.0,70,0.00,,SKC,0.94,WeatherDisplay:10.37,2013-03-24 14:30:00,
2013-03-24 10:33:00,51.3,42.2,27.62,SW,225,0.0,0.0,71,0.04,CLR,SKC,0.96,WeatherDisplay:10.37,2013-03-24 14:33:00,
2013-03-24 10:34:00,51.4,42.0,27.62,SSW,202,0.0,0.0,70,0.05,RA,SKC,0.96,WeatherDisplay:10.37,2013-03-24 14:34:00,
2013-03-24 10:35:00,51.3,41.8,27.62,SW,225,0.0,0.0,70,0.05,RA,SKC,0.96,WeatherDisplay:10.37,2013-03-24 14:35:00,
2013-03-24 10:38:00,51.4,42.0,27.62,SW,225,0.7,0.0,70,0.05,RA,SKC,0.96,WeatherDisplay:10.37,2013-03-24 14:38:00,
2013-03-24 10:39:00,51.6,42.2,27.62,West,270,1.1,0.0,70,0.05,RA,SKC,0.96,WeatherDisplay:10.37,2013-03-24 14:39:00,
2013-03-24 10:40:00,51.6,42.2,27.62,West,270,1.1,0.0,70,0.05,RA,SKC,0.96,WeatherDisplay:10.37,2013-03-24 14:40:00,
2013-03-24 10:43:00,51.6,42.2,27.62,West,270,0.0,0.0,70,0.05,RA,SKC,0.96,WeatherDisplay:10.37,2013-03-24 14:43:00,
2013-03-24 10:44:00,51.6,42.2,27.62,NW,315,0.0,0.0,70,0.04,,SKC,0.96,WeatherDisplay:10.37,2013-03-24 14:44:00,
2013-03-24 10:45:00,51.6,42.2,27.62,NW,315,0.0,0.0,70,0.04,,SKC,0.96,WeatherDisplay:10.37,2013-03-24 14:45:00,
2013-03-24 10:48:00,51.8,42.3,27.62,West,270,0.0,0.0,70,0.04,CLR,SKC,0.97,WeatherDisplay:10.37,2013-03-24 14:48:00,
2013-03-24 10:49:00,51.8,42.3,27.62,West,270,0.0,0.0,70,0.05,RA,SKC,0.97,WeatherDisplay:10.37,2013-03-24 14:49:00,
2013-03-24 10:50:00,51.8,42.3,27.62,West,270,0.0,0.0,70,0.05,RA,SKC,0.97,WeatherDisplay:10.37,2013-03-24 14:50:00,
2013-03-24 10:54:00,51.8,42.3,27.62,SW,225,1.1,0.0,70,0.05,RA,SKC,0.97,WeatherDisplay:10.37,2013-03-24 14:54:00,
2013-03-24 10:55:00,51.8,42.3,27.62,SW,225,1.1,0.0,70,0.05,RA,SKC,0.97,WeatherDisplay:10.37,2013-03-24 14:55:00,
2013-03-24 10:59:00,52.2,42.7,27.62,SW,225,0.0,0.0,70,0.05,,SKC,0.97,WeatherDisplay:10.37,2013-03-24 14:59:00,
2013-03-24 11:00:00,52.2,42.7,27.62,SW,225,0.0,0.0,70,0.05,,SKC,0.97,WeatherDisplay:10.37,2013-03-24 15:00:00,
2013-03-24 11:01:00,52.0,42.5,27.62,SW,225,0.0,0.0,70,0.05,,SKC,0.97,WeatherDisplay:10.37,2013-03-24 15:01:00,
2013-03-24 11:05:00,52.0,42.5,27.62,SW,225,0.0,0.0,70,0.05,CLR,SKC,0.97,WeatherDisplay:10.37,2013-03-24 15:05:00,
2013-03-24 11:06:00,52.0,42.5,27.62,West,270,0.0,0.0,70,0.05,CLR,SKC,0.98,WeatherDisplay:10.37,2013-03-24 15:06:00,
2013-03-24 11:10:00,52.2,42.3,27.62,SW,225,0.0,0.0,69,0.05,RA,SKC,0.98,WeatherDisplay:10.37,2013-03-24 15:10:00,
2013-03-24 11:13:00,52.2,42.3,27.61,South,180,0.0,0.0,69,0.05,RA,SKC,0.98,WeatherDisplay:10.37,2013-03-24 15:13:00,
2013-03-24 11:15:00,52.3,42.8,27.62,SW,225,0.0,0.0,70,0.05,RA,SKC,0.98,WeatherDisplay:10.37,2013-03-24 15:15:00,
2013-03-24 11:18:00,52.5,42.6,27.61,West,270,0.0,0.0,69,0.05,CLR,SKC,0.98,WeatherDisplay:10.37,2013-03-24 15:18:00,
2013-03-24 11:20:00,52.5,42.6,27.61,West,270,0.0,0.0,69,0.04,CLR,SKC,0.98,WeatherDisplay:10.37,2013-03-24 15:20:00,
2013-03-24 11:22:00,52.5,42.6,27.61,SW,225,2.3,0.0,69,0.05,RA,SKC,0.99,WeatherDisplay:10.37,2013-03-24 15:22:00,
2013-03-24 11:23:00,52.5,42.6,27.61,SW,225,1.1,0.0,69,0.05,RA,SKC,0.99,WeatherDisplay:10.37,2013-03-24 15:23:00,
2013-03-24 11:25:00,52.5,42.6,27.62,SW,225,0.0,0.0,69,0.05,RA,SKC,0.99,WeatherDisplay:10.37,2013-03-24 15:25:00,
2013-03-24 11:27:00,52.3,42.1,27.62,SE,135,0.0,0.0,68,0.05,RA,SKC,0.99,WeatherDisplay:10.37,2013-03-24 15:27:00,
2013-03-24 11:28:00,52.3,42.1,27.62,SE,135,0.0,0.0,68,0.05,RA,SKC,0.99,WeatherDisplay:10.37,2013-03-24 15:28:00,
2013-03-24 11:32:00,52.5,42.3,27.62,South,180,0.0,0.0,68,0.05,,SKC,0.99,WeatherDisplay:10.37,2013-03-24 15:32:00,
2013-03-24 11:33:00,52.5,42.3,27.62,SW,225,0.0,0.0,68,0.05,CLR,SKC,0.99,WeatherDisplay:10.37,2013-03-24 15:33:00,
2013-03-24 11:37:00,52.5,42.3,27.62,SW,225,0.0,0.0,68,0.04,CLR,SKC,0.99,WeatherDisplay:10.37,2013-03-24 15:37:00,
2013-03-24 11:38:00,52.5,42.3,27.62,SW,225,0.0,0.0,68,0.04,CLR,SKC,0.99,WeatherDisplay:10.37,2013-03-24 15:38:00,
2013-03-24 11:43:00,52.5,42.3,27.62,South,180,0.0,0.0,68,0.04,CLR,SKC,0.99,WeatherDisplay:10.37,2013-03-24 15:43:00,
2013-03-24 11:44:00,52.5,42.3,27.62,South,180,0.0,0.0,68,0.04,CLR,SKC,0.99,WeatherDisplay:10.37,2013-03-24 15:44:00,
2013-03-24 11:48:00,52.7,42.4,27.62,South,180,0.0,0.0,68,0.04,CLR,SKC,0.99,WeatherDisplay:10.37,2013-03-24 15:48:00,
2013-03-24 11:49:00,52.7,42.4,27.62,SW,225,0.0,0.0,68,0.02,CLR,SKC,0.99,WeatherDisplay:10.37,2013-03-24 15:49:00,
2013-03-24 11:53:00,53.1,42.8,27.62,SE,135,2.3,2.3,68,0.04,RA,SKC,1.00,WeatherDisplay:10.37,2013-03-24 15:53:00,
2013-03-24 11:54:00,53.1,42.4,27.61,SE,135,3.5,3.5,67,0.04,RA,SKC,1.00,WeatherDisplay:10.37,2013-03-24 15:54:00,
2013-03-24 11:58:00,53.4,42.7,27.62,SW,225,0.0,0.0,67,0.04,RA,SKC,1.00,WeatherDisplay:10.37,2013-03-24 15:58:00,
2013-03-24 11:59:00,53.2,42.6,27.62,SW,225,4.6,4.6,67,0.04,RA,SKC,1.00,WeatherDisplay:10.37,2013-03-24 15:59:00,
2013-03-24 12:03:00,53.2,41.8,27.61,South,180,5.8,5.8,65,0.04,,SKC,1.00,WeatherDisplay:10.37,2013-03-24 16:03:00,
2013-03-24 12:04:00,53.2,41.8,27.61,South,180,5.8,5.8,65,0.04,,SKC,1.00,WeatherDisplay:10.37,2013-03-24 16:04:00,
2013-03-24 12:08:00,53.2,41.8,27.61,South,180,5.8,5.8,65,0.02,CLR,SKC,1.00,WeatherDisplay:10.37,2013-03-24 16:08:00,
2013-03-24 12:09:00,53.2,41.8,27.61,South,180,5.8,5.8,65,0.02,CLR,SKC,1.00,WeatherDisplay:10.37,2013-03-24 16:09:00,
2013-03-24 12:10:00,53.2,41.8,27.61,South,180,5.8,5.8,65,0.02,CLR,SKC,1.00,WeatherDisplay:10.37,2013-03-24 16:10:00,
2013-03-24 12:13:00,53.6,41.3,27.61,SE,135,5.8,5.8,63,0.02,CLR,SKC,1.00,WeatherDisplay:10.37,2013-03-24 16:13:00,
2013-03-24 12:14:00,53.6,41.3,27.61,SE,135,5.8,5.8,63,0.02,CLR,SKC,1.00,WeatherDisplay:10.37,2013-03-24 16:14:00,
2013-03-24 12:15:00,53.6,40.9,27.61,SE,135,4.6,4.6,62,0.02,CLR,SKC,1.00,WeatherDisplay:10.37,2013-03-24 16:15:00,
2013-03-24 12:18:00,53.6,40.5,27.61,South,180,5.8,5.8,61,0.02,CLR,SKC,1.00,WeatherDisplay:10.37,2013-03-24 16:18:00,
2013-03-24 12:19:00,53.6,40.9,27.61,South,180,5.8,5.8,62,0.02,CLR,SKC,1.00,WeatherDisplay:10.37,2013-03-24 16:19:00,
2013-03-24 12:20:00,53.6,40.5,27.60,SE,135,6.9,6.9,61,0.02,CLR,SKC,1.00,WeatherDisplay:10.37,2013-03-24 16:20:00,
2013-03-24 12:23:00,53.8,41.1,27.60,SE,135,4.6,4.6,62,0.01,CLR,SKC,1.00,WeatherDisplay:10.37,2013-03-24 16:23:00,
2013-03-24 12:24:00,53.8,41.1,27.60,SE,135,3.5,3.5,62,0.01,CLR,SKC,1.00,WeatherDisplay:10.37,2013-03-24 16:24:00,
2013-03-24 12:25:00,53.8,40.6,27.60,SE,135,4.6,4.6,61,0.01,CLR,SKC,1.00,WeatherDisplay:10.37,2013-03-24 16:25:00,
2013-03-24 12:29:00,54.0,40.8,27.60,SE,135,3.5,3.5,61,0.01,CLR,SKC,1.00,WeatherDisplay:10.37,2013-03-24 16:29:00,
2013-03-24 12:30:00,54.3,41.6,27.60,SE,135,3.5,3.5,62,0.01,CLR,SKC,1.00,WeatherDisplay:10.37,2013-03-24 16:30:00,
2013-03-24 12:34:00,54.3,40.3,27.60,South,180,3.5,3.5,59,0.01,CLR,SKC,1.00,WeatherDisplay:10.37,2013-03-24 16:34:00,
2013-03-24 12:35:00,54.1,39.2,27.59,SE,135,8.1,8.1,57,0.01,CLR,SKC,1.00,WeatherDisplay:10.37,2013-03-24 16:35:00,
2013-03-24 12:39:00,54.1,39.7,27.60,SSE,158,9.2,9.2,58,0.01,CLR,SKC,1.00,WeatherDisplay:10.37,2013-03-24 16:39:00,
2013-03-24 12:40:00,54.1,39.7,27.60,SE,135,9.2,9.2,58,0.01,CLR,SKC,1.00,WeatherDisplay:10.37,2013-03-24 16:40:00,
2013-03-24 12:44:00,53.8,39.3,27.60,SE,135,8.1,8.1,58,0.01,CLR,SKC,1.00,WeatherDisplay:10.37,2013-03-24 16:44:00,
2013-03-24 12:45:00,53.8,39.3,27.59,SSE,158,8.1,8.1,58,0.01,CLR,SKC,1.00,WeatherDisplay:10.37,2013-03-24 16:45:00,
2013-03-24 12:46:00,53.8,38.9,27.60,ENE,68,8.1,8.1,57,0.01,CLR,SKC,1.00,WeatherDisplay:10.37,2013-03-24 16:46:00,
2013-03-24 12:49:00,53.2,37.9,27.59,SE,135,8.1,8.1,56,0.01,CLR,SKC,1.00,WeatherDisplay:10.37,2013-03-24 16:49:00,
2013-03-24 12:50:00,53.2,38.4,27.58,SE,135,8.1,8.1,57,0.01,CLR,SKC,1.00,WeatherDisplay:10.37,2013-03-24 16:50:00,
2013-03-24 12:52:00,53.4,39.0,27.58,SE,135,8.1,8.1,58,0.01,CLR,SKC,1.00,WeatherDisplay:10.37,2013-03-24 16:52:00,
2013-03-24 12:55:00,53.6,38.7,27.58,SE,135,5.8,5.8,57,0.00,CLR,SKC,1.00,WeatherDisplay:10.37,2013-03-24 16:55:00,
2013-03-24 12:57:00,53.8,38.0,27.58,SE,135,8.1,8.1,55,0.00,CLR,SKC,1.00,WeatherDisplay:10.37,2013-03-24 16:57:00,
2013-03-24 12:59:00,54.1,38.7,27.58,SE,140,1.0,9.0,56,0.00,CLR,SKC,1.00,WeatherDisplay:10.37,2013-03-24 16:59:00,
2013-03-24 13:00:00,54.3,38.9,27.58,NE,45,3.5,3.5,56,0.00,CLR,SKC,1.00,WeatherDisplay:10.37,2013-03-24 17:00:00,
2013-03-24 13:02:00,54.3,38.9,27.57,NE,45,3.5,3.5,56,0.00,CLR,SKC,1.00,WeatherDisplay:10.37,2013-03-24 17:02:00,
2013-03-24 13:05:00,54.3,38.9,27.57,NE,45,3.5,3.5,56,0.00,CLR,SKC,1.00,WeatherDisplay:10.37,2013-03-24 17:05:00,
2013-03-24 13:06:00,55.2,39.3,27.57,SE,135,3.5,3.5,55,0.00,CLR,SKC,1.00,WeatherDisplay:10.37,2013-03-24 17:06:00,
2013-03-24 13:07:00,55.9,40.5,27.57,SE,135,2.3,0.0,56,0.00,CLR,SKC,1.00,WeatherDisplay:10.37,2013-03-24 17:07:00,
2013-03-24 13:10:00,56.7,40.2,27.57,South,180,5.8,5.8,54,0.00,CLR,SKC,1.00,WeatherDisplay:10.37,2013-03-24 17:10:00,
2013-03-24 13:11:00,57.0,38.0,27.56,SE,135,9.2,9.2,49,0.00,CLR,SKC,1.00,WeatherDisplay:10.37,2013-03-24 17:11:00,
2013-03-24 13:12:00,57.4,39.4,27.56,SSE,158,9.2,9.2,51,0.00,CLR,SKC,1.00,WeatherDisplay:10.37,2013-03-24 17:12:00,
2013-03-24 13:15:00,57.7,38.2,27.56,SSW,202,9.2,9.2,48,0.00,CLR,SKC,1.00,WeatherDisplay:10.37,2013-03-24 17:15:00,
2013-03-24 13:16:00,57.7,37.1,27.56,NW,315,9.2,0.0,46,0.00,CLR,SKC,1.00,WeatherDisplay:10.37,2013-03-24 17:16:00,
2013-03-24 13:17:00,57.7,37.1,27.56,NW,315,9.2,0.0,46,0.00,CLR,SKC,1.00,WeatherDisplay:10.37,2013-03-24 17:17:00,
2013-03-24 13:20:00,58.6,36.8,27.55,SSE,158,8.1,8.1,44,0.00,CLR,SKC,1.00,WeatherDisplay:10.37,2013-03-24 17:20:00,
2013-03-24 13:22:00,58.6,37.3,27.56,NW,315,5.8,0.0,45,0.00,CLR,SKC,1.00,WeatherDisplay:10.37,2013-03-24 17:22:00,
2013-03-24 13:25:00,58.8,36.4,27.56,East,90,4.6,4.6,43,0.00,CLR,SKC,1.00,WeatherDisplay:10.37,2013-03-24 17:25:00,
2013-03-24 13:27:00,59.0,35.9,27.56,WSW,248,4.6,4.6,42,0.00,CLR,SKC,1.00,WeatherDisplay:10.37,2013-03-24 17:27:00,
2013-03-24 13:30:00,58.6,33.1,27.56,North,0,8.1,8.1,38,0.00,CLR,SKC,1.00,WeatherDisplay:10.37,2013-03-24 17:30:00,
2013-03-24 13:32:00,58.5,33.6,27.55,SE,135,4.6,4.6,39,0.00,CLR,SKC,1.00,WeatherDisplay:10.37,2013-03-24 17:32:00,
2013-03-24 13:33:00,58.3,34.0,27.56,SE,135,3.5,3.5,40,0.00,CLR,SKC,1.00,WeatherDisplay:10.37,2013-03-24 17:33:00,
2013-03-24 13:35:00,57.9,32.4,27.56,SE,135,8.1,8.1,38,0.00,CLR,SKC,1.00,WeatherDisplay:10.37,2013-03-24 17:35:00,
2013-03-24 13:37:00,57.7,32.9,27.56,SE,135,5.8,5.8,39,0.00,CLR,SKC,1.00,WeatherDisplay:10.37,2013-03-24 17:37:00,
2013-03-24 13:38:00,57.7,32.3,27.55,SE,135,8.1,8.1,38,0.00,CLR,SKC,1.00,WeatherDisplay:10.37,2013-03-24 17:38:00,
2013-03-24 13:40:00,57.9,34.3,27.55,East,90,4.6,4.6,41,0.00,CLR,SKC,1.00,WeatherDisplay:10.37,2013-03-24 17:40:00,
2013-03-24 13:42:00,58.3,34.0,27.55,NW,315,5.8,0.0,40,0.00,CLR,SKC,1.00,WeatherDisplay:10.37,2013-03-24 17:42:00,
2013-03-24 13:43:00,58.6,35.6,27.55,SE,135,4.6,4.6,42,0.00,CLR,SKC,1.00,WeatherDisplay:10.37,2013-03-24 17:43:00,
2013-03-24 13:46:00,59.2,31.5,27.54,East,90,8.1,8.1,35,0.00,CLR,SKC,1.00,WeatherDisplay:10.37,2013-03-24 17:46:00,
2013-03-24 13:47:00,59.4,33.7,27.55,SE,135,8.1,8.1,38,0.00,CLR,SKC,1.00,WeatherDisplay:10.37,2013-03-24 17:47:00,
2013-03-24 13:48:00,59.2,31.5,27.55,SE,135,8.3,8.3,35,0.00,CLR,SKC,1.00,WeatherDisplay:10.37,2013-03-24 17:48:00,
2013-03-24 13:52:00,58.8,31.2,27.54,SE,135,5.8,5.8,35,0.00,CLR,SKC,1.00,WeatherDisplay:10.37,2013-03-24 17:52:00,
2013-03-24 13:53:00,58.8,31.2,27.54,SE,135,8.1,8.1,35,0.00,CLR,SKC,1.00,WeatherDisplay:10.37,2013-03-24 17:53:00,
2013-03-24 13:57:00,59.2,33.6,27.54,NW,315,5.8,5.8,38,0.00,CLR,SKC,1.00,WeatherDisplay:10.37,2013-03-24 17:57:00,
2013-03-24 13:58:00,59.4,33.1,27.53,NW,315,4.6,4.6,37,0.00,CLR,SKC,1.00,WeatherDisplay:10.37,2013-03-24 17:58:00,
2013-03-24 13:59:00,59.7,32.7,27.53,SE,135,8.1,8.1,36,0.00,CLR,SKC,1.00,WeatherDisplay:10.37,2013-03-24 17:59:00,
2013-03-24 14:03:00,59.7,31.3,27.53,SE,135,5.8,5.8,34,0.00,CLR,SKC,1.00,WeatherDisplay:10.37,2013-03-24 18:03:00,
2013-03-24 14:04:00,59.7,31.3,27.53,SE,135,5.8,5.8,34,0.00,CLR,SKC,1.00,WeatherDisplay:10.37,2013-03-24 18:04:00,
2013-03-24 14:08:00,59.5,31.8,27.52,NE,45,5.8,5.8,35,0.00,CLR,SKC,1.00,WeatherDisplay:10.37,2013-03-24 18:08:00,
2013-03-24 14:09:00,59.5,31.8,27.52,NE,45,3.5,3.5,35,0.00,CLR,SKC,1.00,WeatherDisplay:10.37,2013-03-24 18:09:00,
2013-03-24 14:13:00,61.3,32.0,27.53,South,180,2.3,0.0,33,0.00,CLR,SKC,1.00,WeatherDisplay:10.37,2013-03-24 18:13:00,
2013-03-24 14:14:00,61.5,29.8,27.53,South,180,6.0,6.0,30,0.00,CLR,SKC,1.00,WeatherDisplay:10.37,2013-03-24 18:14:00,
2013-03-24 14:18:00,61.7,26.4,27.53,SE,135,8.1,0.0,26,0.00,CLR,SKC,1.00,WeatherDisplay:10.37,2013-03-24 18:18:00,
2013-03-24 14:19:00,61.7,26.4,27.53,SE,135,2.3,0.0,26,0.00,CLR,SKC,1.00,WeatherDisplay:10.37,2013-03-24 18:19:00,
2013-03-24 14:23:00,61.9,25.6,27.54,South,180,8.1,8.1,25,0.00,CLR,SKC,1.00,WeatherDisplay:10.37,2013-03-24 18:23:00,
2013-03-24 14:24:00,61.9,27.5,27.53,NE,45,5.8,5.8,27,0.00,CLR,SKC,1.00,WeatherDisplay:10.37,2013-03-24 18:24:00,
2013-03-24 14:29:00,62.2,25.0,27.53,ENE,68,8.1,8.1,24,0.00,CLR,SKC,1.00,WeatherDisplay:10.37,2013-03-24 18:29:00,
2013-03-24 14:30:00,62.2,25.0,27.53,SE,130,3.0,8.0,24,0.00,CLR,SKC,1.00,WeatherDisplay:10.37,2013-03-24 18:30:00,
2013-03-24 14:34:00,61.3,25.2,27.53,West,270,3.5,3.5,25,0.00,CLR,SKC,1.00,WeatherDisplay:10.37,2013-03-24 18:34:00,
2013-03-24 14:35:00,61.3,27.9,27.52,SSE,158,8.1,8.1,28,0.00,CLR,SKC,1.00,WeatherDisplay:10.37,2013-03-24 18:35:00,
2013-03-24 14:39:00,62.8,25.4,27.53,SE,135,8.1,8.1,24,0.00,CLR,SKC,1.00,WeatherDisplay:10.37,2013-03-24 18:39:00,
2013-03-24 14:40:00,62.8,25.4,27.53,SE,135,8.1,8.1,24,0.00,CLR,SKC,1.00,WeatherDisplay:10.37,2013-03-24 18:40:00,
2013-03-24 14:44:00,61.5,25.3,27.52,SE,135,4.6,4.6,25,0.00,CLR,SKC,1.00,WeatherDisplay:10.37,2013-03-24 18:44:00,
2013-03-24 14:45:00,61.7,25.5,27.52,SE,135,3.5,3.5,25,0.00,CLR,SKC,1.00,WeatherDisplay:10.37,2013-03-24 18:45:00,
2013-03-24 14:50:00,62.1,20.5,27.52,South,180,4.6,4.6,20,0.00,CLR,SKC,1.00,WeatherDisplay:10.37,2013-03-24 18:50:00,
2013-03-24 14:55:00,61.2,23.0,27.51,South,180,3.5,3.5,23,0.00,CLR,SKC,1.00,WeatherDisplay:10.37,2013-03-24 18:55:00,
2013-03-24 14:56:00,61.2,23.0,27.51,South,180,2.3,0.0,23,0.00,CLR,SKC,1.00,WeatherDisplay:10.37,2013-03-24 18:56:00,
2013-03-24 15:00:00,61.2,23.0,27.51,South,180,3.1,3.1,23,0.00,CLR,SKC,1.00,WeatherDisplay:10.37,2013-03-24 19:00:00,
2013-03-24 15:01:00,61.2,23.0,27.51,South,180,3.5,3.5,23,0.00,CLR,SKC,1.00,WeatherDisplay:10.37,2013-03-24 19:01:00,
2013-03-24 15:05:00,61.2,23.0,27.51,South,180,3.5,3.5,23,0.00,CLR,SKC,1.00,WeatherDisplay:10.37,2013-03-24 19:05:00,
2013-03-24 15:06:00,61.2,23.0,27.50,South,180,3.5,3.5,23,0.00,CLR,SKC,1.00,WeatherDisplay:10.37,2013-03-24 19:06:00,
2013-03-24 15:07:00,61.2,23.0,27.50,South,180,3.5,3.5,23,0.00,CLR,SKC,1.00,WeatherDisplay:10.37,2013-03-24 19:07:00,
2013-03-24 15:10:00,59.5,22.7,27.49,SW,225,6.9,6.9,24,0.00,CLR,SKC,1.00,WeatherDisplay:10.37,2013-03-24 19:10:00,
2013-03-24 15:11:00,59.5,22.7,27.49,SW,225,6.9,6.9,24,0.00,CLR,SKC,1.00,WeatherDisplay:10.37,2013-03-24 19:11:00,
2013-03-24 15:12:00,59.2,24.3,27.50,SSE,158,5.8,5.8,26,0.00,CLR,SKC,1.00,WeatherDisplay:10.37,2013-03-24 19:12:00,
2013-03-24 15:15:00,58.8,24.0,27.50,SE,135,5.8,5.8,26,0.00,CLR,SKC,1.00,WeatherDisplay:10.37,2013-03-24 19:15:00,
2013-03-24 15:16:00,58.8,24.9,27.50,South,180,5.8,5.8,27,0.00,CLR,SKC,1.00,WeatherDisplay:10.37,2013-03-24 19:16:00,
2013-03-24 15:17:00,58.8,26.6,27.50,SW,225,3.5,3.5,29,0.00,CLR,SKC,1.00,WeatherDisplay:10.37,2013-03-24 19:17:00,
2013-03-24 15:20:00,58.3,24.4,27.51,South,180,5.8,5.8,27,0.00,CLR,SKC,1.00,WeatherDisplay:10.37,2013-03-24 19:20:00,
2013-03-24 15:22:00,57.9,22.3,27.51,South,180,10.4,10.4,25,0.00,CLR,SKC,1.00,WeatherDisplay:10.37,2013-03-24 19:22:00,
2013-03-24 15:25:00,57.2,24.3,27.51,South,180,4.6,4.6,28,0.00,CLR,SKC,1.00,WeatherDisplay:10.37,2013-03-24 19:25:00,
2013-03-24 15:27:00,57.2,24.3,27.51,South,180,8.1,8.1,28,0.00,CLR,SKC,1.00,WeatherDisplay:10.37,2013-03-24 19:27:00,
2013-03-24 15:28:00,57.0,24.2,27.50,SW,225,8.1,8.1,28,0.00,CLR,SKC,1.00,WeatherDisplay:10.37,2013-03-24 19:28:00,
2013-03-24 15:32:00,56.7,24.7,27.51,SSW,202,5.8,5.8,29,0.00,CLR,SKC,1.00,WeatherDisplay:10.37,2013-03-24 19:32:00,
2013-03-24 15:33:00,56.7,25.5,27.50,South,180,5.8,5.8,30,0.00,CLR,SKC,1.00,WeatherDisplay:10.37,2013-03-24 19:33:00,
2013-03-24 15:37:00,56.7,26.3,27.50,SSE,158,5.8,5.8,31,0.00,CLR,SKC,1.00,WeatherDisplay:10.37,2013-03-24 19:37:00,
2013-03-24 15:38:00,56.7,26.3,27.50,SE,135,5.8,5.8,31,0.00,CLR,SKC,1.00,WeatherDisplay:10.37,2013-03-24 19:38:00,
2013-03-24 15:42:00,56.7,26.3,27.50,South,180,5.8,5.8,31,0.00,CLR,SKC,1.00,WeatherDisplay:10.37,2013-03-24 19:42:00,
2013-03-24 15:43:00,56.7,27.1,27.50,West,270,5.8,5.8,32,0.00,CLR,SKC,1.00,WeatherDisplay:10.37,2013-03-24 19:43:00,
2013-03-24 15:47:00,56.7,25.5,27.50,South,180,6.9,6.9,30,0.00,CLR,SKC,1.00,WeatherDisplay:10.37,2013-03-24 19:47:00,
2013-03-24 15:48:00,56.7,25.5,27.50,South,180,5.8,5.8,30,0.00,CLR,SKC,1.00,WeatherDisplay:10.37,2013-03-24 19:48:00,
2013-03-24 15:53:00,56.5,26.9,27.50,SSW,202,4.6,4.6,32,0.00,CLR,SKC,1.00,WeatherDisplay:10.37,2013-03-24 19:53:00,
2013-03-24 15:54:00,56.5,26.9,27.49,South,180,3.5,3.5,32,0.00,CLR,SKC,1.00,WeatherDisplay:10.37,2013-03-24 19:54:00,
2013-03-24 15:58:00,56.5,26.2,27.50,South,180,11.5,11.5,31,0.00,CLR,SKC,1.00,WeatherDisplay:10.37,2013-03-24 19:58:00,
2013-03-24 15:59:00,56.5,27.7,27.50,SE,135,5.8,5.8,33,0.00,CLR,SKC,1.00,WeatherDisplay:10.37,2013-03-24 19:59:00,
2013-03-24 16:03:00,56.5,26.9,27.50,South,180,4.6,4.6,32,0.00,CLR,SKC,1.00,WeatherDisplay:10.37,2013-03-24 20:03:00,
2013-03-24 16:05:00,56.5,26.9,27.50,South,180,4.6,4.6,32,0.00,CLR,SKC,1.00,WeatherDisplay:10.37,2013-03-24 20:05:00,
2013-03-24 16:08:00,56.7,26.3,27.50,South,180,5.8,5.8,31,0.00,CLR,SKC,1.00,WeatherDisplay:10.37,2013-03-24 20:08:00,
2013-03-24 16:10:00,56.5,26.2,27.50,South,180,5.8,5.8,31,0.00,CLR,SKC,1.00,WeatherDisplay:10.37,2013-03-24 20:10:00,
2013-03-24 16:13:00,56.5,26.2,27.50,South,180,5.8,5.8,31,0.00,CLR,SKC,1.00,WeatherDisplay:10.37,2013-03-24 20:13:00,
2013-03-24 16:14:00,56.5,26.9,27.50,South,180,5.8,5.8,32,0.00,CLR,SKC,1.00,WeatherDisplay:10.37,2013-03-24 20:14:00,
2013-03-24 16:15:00,56.7,27.1,27.50,SSW,202,4.6,4.6,32,0.00,CLR,SKC,1.00,WeatherDisplay:10.37,2013-03-24 20:15:00,
2013-03-24 16:18:00,56.7,25.5,27.49,SE,135,9.2,9.2,30,0.00,CLR,SKC,1.00,WeatherDisplay:10.37,2013-03-24 20:18:00,
2013-03-24 16:19:00,56.7,25.5,27.50,SW,225,9.2,9.2,30,0.00,CLR,SKC,1.00,WeatherDisplay:10.37,2013-03-24 20:19:00,
2013-03-24 16:20:00,56.7,26.3,27.49,South,180,5.8,5.8,31,0.00,CLR,SKC,1.00,WeatherDisplay:10.37,2013-03-24 20:20:00,
2013-03-24 16:23:00,57.0,26.6,27.49,South,180,5.8,5.8,31,0.00,CLR,SKC,1.00,WeatherDisplay:10.37,2013-03-24 20:23:00,
2013-03-24 16:24:00,57.0,25.9,27.49,South,180,10.4,10.4,30,0.00,CLR,SKC,1.00,WeatherDisplay:10.37,2013-03-24 20:24:00,
2013-03-24 16:25:00,56.8,25.7,27.50,South,180,10.4,10.4,30,0.00,CLR,SKC,1.00,WeatherDisplay:10.37,2013-03-24 20:25:00,
2013-03-24 16:28:00,56.1,25.1,27.50,South,180,9.2,9.2,30,0.00,CLR,SKC,1.00,WeatherDisplay:10.37,2013-03-24 20:28:00,
2013-03-24 16:29:00,56.5,26.2,27.50,SE,135,8.1,8.1,31,0.00,CLR,SKC,1.00,WeatherDisplay:10.37,2013-03-24 20:29:00,
2013-03-24 16:30:00,56.1,25.9,27.50,ENE,68,8.1,8.1,31,0.00,CLR,SKC,1.00,WeatherDisplay:10.37,2013-03-24 20:30:00,
2013-03-24 16:33:00,55.8,25.5,27.51,South,180,5.8,5.8,31,0.00,CLR,SKC,1.00,WeatherDisplay:10.37,2013-03-24 20:33:00,
2013-03-24 16:34:00,55.8,25.5,27.51,South,180,5.8,5.8,31,0.00,CLR,SKC,1.00,WeatherDisplay:10.37,2013-03-24 20:34:00,
2013-03-24 16:36:00,55.4,26.0,27.50,SE,135,5.8,5.8,32,0.00,CLR,SKC,1.00,WeatherDisplay:10.37,2013-03-24 20:36:00,
2013-03-24 16:38:00,55.0,25.7,27.50,SE,135,8.1,8.1,32,0.00,CLR,SKC,1.00,WeatherDisplay:10.37,2013-03-24 20:38:00,
2013-03-24 16:39:00,55.0,25.7,27.50,SE,135,6.9,6.9,32,0.00,CLR,SKC,1.00,WeatherDisplay:10.37,2013-03-24 20:39:00,
2013-03-24 16:41:00,54.7,26.1,27.50,SSW,202,6.9,6.9,33,0.00,CLR,SKC,1.00,WeatherDisplay:10.37,2013-03-24 20:41:00,
2013-03-24 16:43:00,54.7,26.8,27.50,SSW,202,8.1,8.1,34,0.00,CLR,SKC,1.00,WeatherDisplay:10.37,2013-03-24 20:43:00,
2013-03-24 16:44:00,54.5,26.7,27.50,South,180,7.6,7.6,34,0.00,CLR,SKC,1.00,WeatherDisplay:10.37,2013-03-24 20:44:00,
2013-03-24 16:46:00,54.5,27.4,27.50,SSW,202,8.1,8.1,35,0.00,CLR,SKC,1.00,WeatherDisplay:10.37,2013-03-24 20:46:00,
2013-03-24 16:48:00,54.3,27.2,27.50,SE,135,5.8,5.8,35,0.00,CLR,SKC,1.00,WeatherDisplay:10.37,2013-03-24 20:48:00,
2013-03-24 16:49:00,54.3,26.5,27.50,SSE,158,12.7,12.7,34,0.00,CLR,SKC,1.00,WeatherDisplay:10.37,2013-03-24 20:49:00,
2013-03-24 16:51:00,54.3,26.5,27.50,SW,225,9.2,9.2,34,0.00,CLR,SKC,1.00,WeatherDisplay:10.37,2013-03-24 20:51:00,
2013-03-24 16:54:00,54.5,27.4,27.49,WSW,248,5.8,5.8,35,0.00,CLR,SKC,1.00,WeatherDisplay:10.37,2013-03-24 20:54:00,
2013-03-24 16:56:00,54.5,28.1,27.49,South,180,4.6,4.6,36,0.00,CLR,SKC,1.00,WeatherDisplay:10.37,2013-03-24 20:56:00,
2013-03-24 16:59:00,54.5,26.7,27.49,SE,135,8.1,8.1,34,0.00,CLR,SKC,1.00,WeatherDisplay:10.37,2013-03-24 20:59:00,
2013-03-24 17:00:00,54.5,26.7,27.49,South,180,6.9,6.9,34,0.00,CLR,SKC,1.00,WeatherDisplay:10.37,2013-03-24 21:00:00,
2013-03-24 17:02:00,54.5,26.7,27.49,SE,135,6.9,6.9,34,0.00,CLR,SKC,1.00,WeatherDisplay:10.37,2013-03-24 21:02:00,
2013-03-24 17:04:00,54.5,26.7,27.48,SE,135,6.9,6.9,34,0.00,CLR,SKC,1.00,WeatherDisplay:10.37,2013-03-24 21:04:00,
2013-03-24 17:05:00,54.5,26.7,27.48,SE,135,6.9,6.9,34,0.00,CLR,SKC,1.00,WeatherDisplay:10.37,2013-03-24 21:05:00,
2013-03-24 17:07:00,54.5,26.7,27.48,SE,135,6.9,6.9,34,0.00,CLR,SKC,1.00,WeatherDisplay:10.37,2013-03-24 21:07:00,
2013-03-24 17:09:00,54.7,26.8,27.48,SSE,158,8.1,8.1,34,0.00,CLR,SKC,1.00,WeatherDisplay:10.37,2013-03-24 21:09:00,
2013-03-24 17:10:00,54.5,26.0,27.48,South,180,8.1,8.1,33,0.00,CLR,SKC,1.00,WeatherDisplay:10.37,2013-03-24 21:10:00,
2013-03-24 17:12:00,54.5,26.7,27.48,SSE,158,9.2,9.2,34,0.00,CLR,SKC,1.00,WeatherDisplay:10.37,2013-03-24 21:12:00,
2013-03-24 17:14:00,54.3,26.5,27.48,South,180,9.2,9.2,34,0.00,CLR,SKC,1.00,WeatherDisplay:10.37,2013-03-24 21:14:00,
2013-03-24 17:15:00,54.3,26.5,27.48,South,180,9.2,9.2,34,0.00,CLR,SKC,1.00,WeatherDisplay:10.37,2013-03-24 21:15:00,
2013-03-24 17:17:00,54.1,26.4,27.48,SE,135,4.6,4.6,34,0.00,CLR,SKC,1.00,WeatherDisplay:10.37,2013-03-24 21:17:00,
2013-03-24 17:19:00,54.1,27.1,27.48,South,180,8.1,8.1,35,0.00,CLR,SKC,1.00,WeatherDisplay:10.37,2013-03-24 21:19:00,
2013-03-24 17:20:00,54.1,27.1,27.48,South,180,8.1,8.1,35,0.00,CLR,SKC,1.00,WeatherDisplay:10.37,2013-03-24 21:20:00,
2013-03-24 17:22:00,53.8,26.7,27.48,SE,135,6.9,6.9,35,0.00,CLR,SKC,1.00,WeatherDisplay:10.37,2013-03-24 21:22:00,
2013-03-24 17:25:00,53.6,26.6,27.48,SE,135,8.1,8.1,35,0.00,CLR,SKC,1.00,WeatherDisplay:10.37,2013-03-24 21:25:00,
2013-03-24 17:28:00,53.4,27.1,27.48,SE,135,8.1,8.1,36,0.00,CLR,SKC,1.00,WeatherDisplay:10.37,2013-03-24 21:28:00,
2013-03-24 17:30:00,53.2,26.9,27.49,South,180,8.1,8.1,36,0.00,CLR,SKC,1.00,WeatherDisplay:10.37,2013-03-24 21:30:00,
2013-03-24 17:33:00,54.5,28.7,27.48,SE,135,8.1,8.1,37,0.00,CLR,SKC,1.00,WeatherDisplay:10.37,2013-03-24 21:33:00,
2013-03-24 17:35:00,54.5,28.1,27.48,SE,135,9.2,9.2,36,0.00,CLR,SKC,1.00,WeatherDisplay:10.37,2013-03-24 21:35:00,
2013-03-24 17:38:00,52.5,27.0,27.48,South,180,10.4,10.4,37,0.00,CLR,SKC,1.00,WeatherDisplay:10.37,2013-03-24 21:38:00,
2013-03-24 17:40:00,52.7,27.8,27.48,SSE,158,10.4,10.4,38,0.00,CLR,SKC,1.00,WeatherDisplay:10.37,2013-03-24 21:40:00,
2013-03-24 17:43:00,52.5,27.0,27.48,South,180,12.7,12.7,37,0.00,CLR,SKC,1.00,WeatherDisplay:10.37,2013-03-24 21:43:00,
2013-03-24 17:45:00,52.5,27.6,27.48,South,180,8.3,8.3,38,0.00,CLR,SKC,1.00,WeatherDisplay:10.37,2013-03-24 21:45:00,
2013-03-24 17:46:00,52.5,27.6,27.48,South,180,8.3,8.3,38,0.00,CLR,SKC,1.00,WeatherDisplay:10.37,2013-03-24 21:46:00,
2013-03-24 17:48:00,52.5,27.6,27.47,SE,135,10.4,10.4,38,0.00,CLR,SKC,1.00,WeatherDisplay:10.37,2013-03-24 21:48:00,
2013-03-24 17:51:00,52.5,27.0,27.47,South,180,11.5,11.5,37,0.00,CLR,SKC,1.00,WeatherDisplay:10.37,2013-03-24 21:51:00,
2013-03-24 17:53:00,52.5,27.6,27.47,SE,135,10.4,10.4,38,0.00,CLR,SKC,1.00,WeatherDisplay:10.37,2013-03-24 21:53:00,
2013-03-24 17:56:00,52.3,26.8,27.46,SE,135,11.5,11.5,37,0.00,CLR,SKC,1.00,WeatherDisplay:10.37,2013-03-24 21:56:00,
2013-03-24 17:57:00,52.5,27.0,27.46,SE,135,11.5,11.5,37,0.00,CLR,SKC,1.00,WeatherDisplay:10.37,2013-03-24 21:57:00,
2013-03-24 17:59:00,52.5,27.0,27.46,SE,135,8.1,8.1,37,0.00,CLR,SKC,1.00,WeatherDisplay:10.37,2013-03-24 21:59:00,
2013-03-24 18:01:00,52.5,27.0,27.46,SE,135,5.8,5.8,37,0.00,CLR,SKC,1.00,WeatherDisplay:10.37,2013-03-24 22:01:00,
2013-03-24 18:02:00,52.5,27.0,27.48,SE,135,5.8,5.8,37,0.00,CLR,SKC,1.00,WeatherDisplay:10.37,2013-03-24 22:02:00,
2013-03-24 18:04:00,52.5,27.0,27.47,SE,135,5.8,5.8,37,0.00,CLR,SKC,1.00,WeatherDisplay:10.37,2013-03-24 22:04:00,
2013-03-24 18:06:00,52.5,27.0,27.48,SE,135,5.8,5.8,37,0.00,CLR,SKC,1.00,WeatherDisplay:10.37,2013-03-24 22:06:00,
2013-03-24 18:07:00,52.5,27.0,27.48,SE,135,5.8,5.8,37,0.00,CLR,SKC,1.00,WeatherDisplay:10.37,2013-03-24 22:07:00,
2013-03-24 18:09:00,52.2,27.3,27.47,SW,225,8.1,0.0,38,0.00,CLR,SKC,1.00,WeatherDisplay:10.37,2013-03-24 22:09:00,
2013-03-24 18:12:00,52.0,28.4,27.48,SE,135,5.8,5.8,40,0.00,CLR,SKC,1.00,WeatherDisplay:10.37,2013-03-24 22:12:00,
2013-03-24 18:13:00,52.0,28.4,27.48,SE,135,5.8,5.8,40,0.00,CLR,SKC,1.00,WeatherDisplay:10.37,2013-03-24 22:13:00,
2013-03-24 18:14:00,52.0,28.4,27.48,SE,135,3.5,0.0,40,0.00,CLR,SKC,1.00,WeatherDisplay:10.37,2013-03-24 22:14:00,
2013-03-24 18:17:00,52.0,29.0,27.48,NW,315,8.1,8.1,41,0.00,CLR,SKC,1.00,WeatherDisplay:10.37,2013-03-24 22:17:00,
2013-03-24 18:18:00,52.0,28.4,27.48,South,180,6.9,6.9,40,0.00,CLR,SKC,1.00,WeatherDisplay:10.37,2013-03-24 22:18:00,
2013-03-24 18:19:00,52.0,29.0,27.48,South,180,6.9,6.9,41,0.00,CLR,SKC,1.00,WeatherDisplay:10.37,2013-03-24 22:19:00,
2013-03-24 18:23:00,51.8,28.2,27.48,South,180,12.7,12.7,40,0.00,CLR,SKC,1.00,WeatherDisplay:10.37,2013-03-24 22:23:00,
2013-03-24 18:24:00,51.6,28.7,27.48,South,180,12.7,12.7,41,0.00,CLR,SKC,1.00,WeatherDisplay:10.37,2013-03-24 22:24:00,
2013-03-24 18:28:00,51.4,28.5,27.48,ENE,68,9.2,9.2,41,0.00,CLR,SKC,1.00,WeatherDisplay:10.37,2013-03-24 22:28:00,
2013-03-24 18:29:00,51.4,28.5,27.48,ENE,68,8.1,8.1,41,0.00,CLR,SKC,1.00,WeatherDisplay:10.37,2013-03-24 22:29:00,
2013-03-24 18:33:00,51.6,28.7,27.48,South,180,9.2,9.2,41,0.00,CLR,SKC,1.00,WeatherDisplay:10.37,2013-03-24 22:33:00,
2013-03-24 18:34:00,51.6,28.7,27.47,South,180,9.2,9.2,41,0.00,CLR,SKC,1.00,WeatherDisplay:10.37,2013-03-24 22:34:00,
2013-03-24 18:38:00,51.4,28.5,27.46,ENE,68,10.4,10.4,41,0.00,CLR,SKC,1.00,WeatherDisplay:10.37,2013-03-24 22:38:00,
2013-03-24 18:39:00,51.4,28.5,27.46,SE,135,10.4,10.4,41,0.00,CLR,SKC,1.00,WeatherDisplay:10.37,2013-03-24 22:39:00,
2013-03-24 18:40:00,51.4,28.5,27.46,SE,135,6.9,6.9,41,0.00,CLR,SKC,1.00,WeatherDisplay:10.37,2013-03-24 22:40:00,
2013-03-24 18:43:00,51.3,28.3,27.46,ESE,112,8.1,8.1,41,0.00,CLR,SKC,1.00,WeatherDisplay:10.37,2013-03-24 22:43:00,
2013-03-24 18:44:00,51.1,28.2,27.46,South,180,10.4,10.4,41,0.00,CLR,SKC,1.00,WeatherDisplay:10.37,2013-03-24 22:44:00,
2013-03-24 18:45:00,51.1,28.2,27.46,South,180,15.0,15.0,41,0.00,CLR,SKC,1.00,WeatherDisplay:10.37,2013-03-24 22:45:00,
2013-03-24 18:48:00,50.9,28.6,27.47,SSW,202,8.1,8.1,42,0.00,CLR,SKC,1.00,WeatherDisplay:10.37,2013-03-24 22:48:00,
2013-03-24 18:49:00,50.9,28.6,27.47,SE,135,8.1,8.1,42,0.00,CLR,SKC,1.00,WeatherDisplay:10.37,2013-03-24 22:49:00,
2013-03-24 18:50:00,50.7,29.0,27.47,SE,135,9.2,9.2,43,0.00,CLR,SKC,1.00,WeatherDisplay:10.37,2013-03-24 22:50:00,
2013-03-24 18:53:00,50.5,28.8,27.48,SSE,158,12.7,12.7,43,0.00,CLR,SKC,1.00,WeatherDisplay:10.37,2013-03-24 22:53:00,
2013-03-24 18:54:00,50.5,29.4,27.48,SE,135,12.7,12.7,44,0.00,CLR,SKC,1.00,WeatherDisplay:10.37,2013-03-24 22:54:00,
2013-03-24 18:55:00,50.5,29.4,27.47,SE,135,9.2,9.2,44,0.00,CLR,SKC,1.00,WeatherDisplay:10.37,2013-03-24 22:55:00,
2013-03-24 18:56:00,50.4,30.3,27.47,South,180,9.2,9.2,46,0.00,CLR,SKC,1.00,WeatherDisplay:10.37,2013-03-24 22:56:00,
2013-03-24 18:58:00,50.2,31.2,27.47,SE,135,8.1,8.1,48,0.00,CLR,SKC,1.00,WeatherDisplay:10.37,2013-03-24 22:58:00,
2013-03-24 18:59:00,50.2,31.2,27.47,SE,135,6.9,6.9,48,0.00,CLR,SKC,1.00,WeatherDisplay:10.37,2013-03-24 22:59:00,
2013-03-24 19:00:00,50.0,31.1,27.47,SE,135,8.1,8.1,48,0.00,CLR,SKC,1.00,WeatherDisplay:10.37,2013-03-24 23:00:00,
2013-03-24 19:02:00,49.8,31.4,27.47,SSE,158,5.8,5.8,49,0.00,CLR,SKC,1.00,WeatherDisplay:10.37,2013-03-24 23:02:00,
2013-03-24 19:03:00,49.8,31.4,27.47,SSE,158,5.8,5.8,49,0.00,CLR,SKC,1.00,WeatherDisplay:10.37,2013-03-24 23:03:00,
2013-03-24 19:04:00,49.8,31.4,27.47,SSE,158,5.8,5.8,49,0.00,CLR,SKC,1.00,WeatherDisplay:10.37,2013-03-24 23:04:00,
2013-03-24 19:05:00,49.8,31.4,27.47,SSE,158,5.8,5.8,49,0.00,CLR,SKC,1.00,WeatherDisplay:10.37,2013-03-24 23:05:00,
2013-03-24 19:08:00,49.5,32.1,27.47,SW,225,5.8,6.0,51,0.00,CLR,SKC,1.02,WeatherDisplay:10.37,2013-03-24 23:08:00,
2013-03-24 19:09:00,49.5,32.1,27.46,SE,135,11.5,11.5,51,0.01,RA,SKC,1.02,WeatherDisplay:10.37,2013-03-24 23:09:00,
2013-03-24 19:10:00,49.5,32.6,27.47,SE,135,6.9,6.9,52,0.01,RA,SKC,1.02,WeatherDisplay:10.37,2013-03-24 23:10:00,
2013-03-24 19:13:00,49.3,32.4,27.46,SE,135,3.5,3.5,52,0.01,RA,SKC,1.02,WeatherDisplay:10.37,2013-03-24 23:13:00,
2013-03-24 19:14:00,49.3,32.9,27.46,SSE,158,12.7,12.7,53,0.01,RA,SKC,1.02,WeatherDisplay:10.37,2013-03-24 23:14:00,
2013-03-24 19:15:00,49.3,31.9,27.46,SE,135,12.7,12.7,51,0.01,RA,SKC,1.02,WeatherDisplay:10.37,2013-03-24 23:15:00,
2013-03-24 19:18:00,49.3,32.4,27.45,East,90,13.7,13.7,52,0.01,,SKC,1.02,WeatherDisplay:10.37,2013-03-24 23:18:00,
2013-03-24 19:19:00,49.3,32.4,27.45,East,90,13.8,13.8,52,0.01,,SKC,1.02,WeatherDisplay:10.37,2013-03-24 23:19:00,
2013-03-24 19:20:00,49.3,32.4,27.46,SE,135,15.0,15.0,52,0.01,CLR,SKC,1.02,WeatherDisplay:10.37,2013-03-24 23:20:00,
2013-03-24 19:23:00,49.5,32.6,27.46,South,180,10.4,10.4,52,0.01,CLR,SKC,1.02,WeatherDisplay:10.37,2013-03-24 23:23:00,
2013-03-24 19:24:00,49.6,32.7,27.46,South,180,11.5,11.5,52,0.01,CLR,SKC,1.02,WeatherDisplay:10.37,2013-03-24 23:24:00,
2013-03-24 19:26:00,49.8,32.9,27.47,South,180,12.7,12.7,52,0.01,CLR,SKC,1.02,WeatherDisplay:10.37,2013-03-24 23:26:00,
2013-03-24 19:28:00,50.0,33.1,27.47,South,180,8.1,8.1,52,0.01,CLR,SKC,1.02,WeatherDisplay:10.37,2013-03-24 23:28:00,
2013-03-24 19:29:00,50.0,32.6,27.47,SE,135,8.1,8.1,51,0.01,CLR,SKC,1.02,WeatherDisplay:10.37,2013-03-24 23:29:00,
2013-03-24 19:30:00,50.0,32.6,27.47,SE,135,12.7,12.7,51,0.01,CLR,SKC,1.02,WeatherDisplay:10.37,2013-03-24 23:30:00,
2013-03-24 19:31:00,50.2,32.7,27.47,South,180,9.2,9.2,51,0.01,CLR,SKC,1.02,WeatherDisplay:10.37,2013-03-24 23:31:00,
2013-03-24 19:34:00,50.2,33.2,27.49,NW,315,5.8,5.8,52,0.01,CLR,SKC,1.02,WeatherDisplay:10.37,2013-03-24 23:34:00,
2013-03-24 19:35:00,50.2,33.2,27.49,NW,315,10.4,10.4,52,0.01,CLR,SKC,1.02,WeatherDisplay:10.37,2013-03-24 23:35:00,
2013-03-24 19:36:00,50.2,33.2,27.49,NW,315,10.4,10.4,52,0.01,CLR,SKC,1.02,WeatherDisplay:10.37,2013-03-24 23:36:00,
2013-03-24 19:39:00,49.8,33.4,27.48,SW,225,8.1,8.1,53,0.01,CLR,SKC,1.02,WeatherDisplay:10.37,2013-03-24 23:39:00,
2013-03-24 19:40:00,49.8,33.4,27.49,South,180,8.1,8.1,53,0.01,CLR,SKC,1.02,WeatherDisplay:10.37,2013-03-24 23:40:00,
2013-03-24 19:41:00,49.8,33.4,27.49,South,180,15.0,15.0,53,0.01,CLR,SKC,1.02,WeatherDisplay:10.37,2013-03-24 23:41:00,
2013-03-24 19:44:00,50.0,33.5,27.50,NW,315,3.5,3.5,53,0.02,RA,SKC,1.03,WeatherDisplay:10.37,2013-03-24 23:44:00,
2013-03-24 19:45:00,49.8,33.8,27.50,NE,45,3.5,3.5,54,0.02,RA,SKC,1.03,WeatherDisplay:10.37,2013-03-24 23:45:00,
2013-03-24 19:47:00,49.8,33.8,27.50,NE,45,3.5,0.0,54,0.02,RA,SKC,1.03,WeatherDisplay:10.37,2013-03-24 23:47:00,
2013-03-24 19:49:00,49.5,34.0,27.50,South,180,0.0,1.6,55,0.02,RA,SKC,1.03,WeatherDisplay:10.37,2013-03-24 23:49:00,
2013-03-24 19:50:00,49.3,34.2,27.50,SSW,202,6.0,6.0,56,0.02,RA,SKC,1.03,WeatherDisplay:10.37,2013-03-24 23:50:00,
2013-03-24 19:52:00,49.1,34.1,27.50,South,180,4.6,0.0,56,0.04,RA,SKC,1.04,WeatherDisplay:10.37,2013-03-24 23:52:00,
2013-03-24 19:54:00,48.9,34.3,27.50,South,180,3.5,3.5,57,0.04,RA,SKC,1.04,WeatherDisplay:10.37,2013-03-24 23:54:00,
2013-03-24 19:55:00,48.9,34.3,27.50,South,180,3.5,3.5,57,0.04,RA,SKC,1.04,WeatherDisplay:10.37,2013-03-24 23:55:00,
2013-03-24 19:57:00,48.7,34.2,27.51,South,180,3.5,3.5,57,0.04,RA,SKC,1.04,WeatherDisplay:10.37,2013-03-24 23:57:00,
2013-03-24 20:00:00,48.7,34.6,27.51,South,180,3.5,0.0,58,0.04,RA,SKC,1.04,WeatherDisplay:10.37,2013-03-25 00:00:00,
2013-03-24 20:02:00,48.7,34.6,27.51,South,180,0.0,0.0,58,0.04,,SKC,1.04,WeatherDisplay:10.37,2013-03-25 00:02:00,
2013-03-24 20:05:00,48.7,34.6,27.51,South,180,0.0,0.0,58,0.04,CLR,SKC,1.04,WeatherDisplay:10.37,2013-03-25 00:05:00,
2013-03-24 20:08:00,48.6,35.3,27.51,West,270,0.0,0.0,60,0.04,CLR,SKC,1.05,WeatherDisplay:10.37,2013-03-25 00:08:00,
2013-03-24 20:10:00,48.6,35.3,27.52,SW,225,0.0,0.0,60,0.04,RA,SKC,1.05,WeatherDisplay:10.37,2013-03-25 00:10:00,
2013-03-24 20:13:00,48.4,35.5,27.52,South,180,3.5,3.5,61,0.04,RA,SKC,1.05,WeatherDisplay:10.37,2013-03-25 00:13:00,
2013-03-24 20:15:00,48.4,35.5,27.52,SW,225,5.8,5.8,61,0.04,RA,SKC,1.05,WeatherDisplay:10.37,2013-03-25 00:15:00,
2013-03-24 20:18:00,48.6,36.1,27.52,South,180,3.5,0.0,62,0.04,,SKC,1.05,WeatherDisplay:10.37,2013-03-25 00:18:00,
2013-03-24 20:20:00,48.4,36.0,27.52,South,180,1.1,0.0,62,0.05,RA,SKC,1.06,WeatherDisplay:10.37,2013-03-25 00:20:00,
2013-03-24 20:23:00,48.4,36.0,27.52,SW,225,2.3,2.3,62,0.05,RA,SKC,1.06,WeatherDisplay:10.37,2013-03-25 00:23:00,
2013-03-24 20:25:00,48.6,36.1,27.53,West,270,3.5,0.0,62,0.05,RA,SKC,1.06,WeatherDisplay:10.37,2013-03-25 00:25:00,
2013-03-24 20:27:00,48.4,36.0,27.53,South,180,3.5,3.5,62,0.05,RA,SKC,1.07,WeatherDisplay:10.37,2013-03-25 00:27:00,
2013-03-24 20:28:00,48.4,36.0,27.52,South,180,3.5,0.0,62,0.06,RA,SKC,1.07,WeatherDisplay:10.37,2013-03-25 00:28:00,
2013-03-24 20:30:00,48.4,36.4,27.53,South,180,5.8,5.8,63,0.06,RA,SKC,1.07,WeatherDisplay:10.37,2013-03-25 00:30:00,
2013-03-24 20:31:00,48.4,36.4,27.53,SSW,202,5.8,5.8,63,0.06,RA,SKC,1.07,WeatherDisplay:10.37,2013-03-25 00:31:00,
2013-03-24 20:33:00,48.4,36.4,27.53,NW,315,4.6,0.0,63,0.06,RA,SKC,1.07,WeatherDisplay:10.37,2013-03-25 00:33:00,
2013-03-24 20:35:00,48.4,36.4,27.54,South,180,3.5,0.0,63,0.07,RA,SKC,1.10,WeatherDisplay:10.37,2013-03-25 00:35:00,
2013-03-24 20:37:00,48.4,36.4,27.54,West,270,3.5,3.5,63,0.09,RA,SKC,1.11,WeatherDisplay:10.37,2013-03-25 00:37:00,
2013-03-24 20:38:00,48.4,36.4,27.53,SSW,202,3.5,3.5,63,0.09,RA,SKC,1.11,WeatherDisplay:10.37,2013-03-25 00:38:00,
2013-03-24 20:40:00,48.4,36.4,27.53,SW,225,3.5,3.5,63,0.09,RA,SKC,1.11,WeatherDisplay:10.37,2013-03-25 00:40:00,
2013-03-24 20:41:00,48.2,36.2,27.54,South,180,6.9,6.9,63,0.09,RA,SKC,1.11,WeatherDisplay:10.37,2013-03-25 00:41:00,
2013-03-24 20:42:00,48.2,36.2,27.54,South,180,6.9,6.9,63,0.09,RA,SKC,1.11,WeatherDisplay:10.37,2013-03-25 00:42:00,
2013-03-24 20:43:00,48.2,36.2,27.53,SW,225,3.5,3.5,63,0.09,RA,SKC,1.11,WeatherDisplay:10.37,2013-03-25 00:43:00,
2013-03-24 20:45:00,48.2,36.6,27.54,SW,225,3.5,3.5,64,0.08,RA,SKC,1.11,WeatherDisplay:10.37,2013-03-25 00:45:00,
2013-03-24 20:47:00,48.2,36.2,27.54,South,180,5.8,5.8,63,0.08,,SKC,1.11,WeatherDisplay:10.37,2013-03-25 00:47:00,
2013-03-24 20:48:00,48.2,36.2,27.54,NW,315,5.8,5.8,63,0.08,,SKC,1.11,WeatherDisplay:10.37,2013-03-25 00:48:00,
2013-03-24 20:50:00,48.2,36.6,27.54,SW,225,2.3,0.0,64,0.08,CLR,SKC,1.11,WeatherDisplay:10.37,2013-03-25 00:50:00,
2013-03-24 20:52:00,48.2,36.6,27.54,SW,225,0.0,0.0,64,0.07,CLR,SKC,1.11,WeatherDisplay:10.37,2013-03-25 00:52:00,
2013-03-24 20:53:00,48.2,36.6,27.54,West,270,2.3,2.3,64,0.07,CLR,SKC,1.11,WeatherDisplay:10.37,2013-03-25 00:53:00,
2013-03-24 20:57:00,48.2,36.6,27.54,West,270,0.0,0.0,64,0.07,CLR,SKC,1.11,WeatherDisplay:10.37,2013-03-25 00:57:00,
2013-03-24 20:58:00,48.2,36.6,27.55,South,180,0.0,0.0,64,0.07,CLR,SKC,1.11,WeatherDisplay:10.37,2013-03-25 00:58:00,
2013-03-24 20:59:00,48.2,36.6,27.55,South,180,0.0,0.0,64,0.07,CLR,SKC,1.11,WeatherDisplay:10.37,2013-03-25 00:59:00,
2013-03-24 21:02:00,48.2,36.6,27.55,SSW,202,5.8,5.8,64,0.07,CLR,SKC,1.11,WeatherDisplay:10.37,2013-03-25 01:02:00,
2013-03-24 21:03:00,48.2,36.6,27.55,SSW,202,5.8,5.8,64,0.07,CLR,SKC,1.11,WeatherDisplay:10.37,2013-03-25 01:03:00,
2013-03-24 21:04:00,48.2,36.6,27.55,SSW,202,5.8,5.8,64,0.07,CLR,SKC,1.11,WeatherDisplay:10.37,2013-03-25 01:04:00,
2013-03-24 21:07:00,48.2,36.6,27.55,SSW,202,5.8,5.8,64,0.07,CLR,SKC,1.11,WeatherDisplay:10.37,2013-03-25 01:07:00,
2013-03-24 21:08:00,48.2,36.6,27.55,SSW,202,5.8,5.8,64,0.06,CLR,SKC,1.11,WeatherDisplay:10.37,2013-03-25 01:08:00,
2013-03-24 21:09:00,48.0,36.0,27.55,West,270,5.8,5.8,63,0.06,CLR,SKC,1.11,WeatherDisplay:10.37,2013-03-25 01:09:00,
2013-03-24 21:12:00,47.7,35.3,27.55,South,180,3.5,0.0,62,0.06,CLR,SKC,1.11,WeatherDisplay:10.37,2013-03-25 01:12:00,
2013-03-24 21:13:00,47.7,35.3,27.55,South,180,2.3,0.0,62,0.06,CLR,SKC,1.11,WeatherDisplay:10.37,2013-03-25 01:13:00,
2013-03-24 21:14:00,47.7,34.9,27.55,NE,45,3.5,0.0,61,0.06,CLR,SKC,1.11,WeatherDisplay:10.37,2013-03-25 01:14:00,
2013-03-24 21:17:00,47.3,34.1,27.55,ENE,68,5.8,5.8,60,0.06,CLR,SKC,1.11,WeatherDisplay:10.37,2013-03-25 01:17:00,
2013-03-24 21:18:00,47.3,34.1,27.55,NE,45,5.8,0.0,60,0.06,CLR,SKC,1.11,WeatherDisplay:10.37,2013-03-25 01:18:00,
2013-03-24 21:19:00,47.3,34.1,27.55,NE,45,3.5,0.0,60,0.05,CLR,SKC,1.11,WeatherDisplay:10.37,2013-03-25 01:19:00,
2013-03-24 21:22:00,47.3,33.7,27.55,NE,45,0.0,0.0,59,0.05,CLR,SKC,1.11,WeatherDisplay:10.37,2013-03-25 01:22:00,
2013-03-24 21:23:00,47.1,33.5,27.56,SW,225,0.0,0.0,59,0.05,CLR,SKC,1.11,WeatherDisplay:10.37,2013-03-25 01:23:00,
2013-03-24 21:24:00,46.9,32.5,27.55,SW,225,0.0,0.0,57,0.05,CLR,SKC,1.11,WeatherDisplay:10.37,2013-03-25 01:24:00,
2013-03-24 21:28:00,46.9,31.6,27.55,SW,225,0.0,0.0,55,0.04,CLR,SKC,1.11,WeatherDisplay:10.37,2013-03-25 01:28:00,
2013-03-24 21:29:00,46.9,31.6,27.55,SW,225,0.0,0.0,55,0.04,CLR,SKC,1.11,WeatherDisplay:10.37,2013-03-25 01:29:00,
2013-03-24 21:30:00,46.8,31.4,27.55,South,180,0.0,0.0,55,0.04,CLR,SKC,1.11,WeatherDisplay:10.37,2013-03-25 01:30:00,
2013-03-24 21:34:00,46.8,31.0,27.55,West,270,0.0,0.0,54,0.04,CLR,SKC,1.11,WeatherDisplay:10.37,2013-03-25 01:34:00,
2013-03-24 21:35:00,46.6,30.8,27.56,NW,315,0.0,0.0,54,0.02,CLR,SKC,1.11,WeatherDisplay:10.37,2013-03-25 01:35:00,
2013-03-24 21:39:00,46.4,31.1,27.56,NE,45,0.0,0.0,55,0.00,CLR,SKC,1.11,WeatherDisplay:10.37,2013-03-25 01:39:00,
2013-03-24 21:40:00,46.4,31.1,27.55,NE,45,0.0,0.0,55,0.00,CLR,SKC,1.11,WeatherDisplay:10.37,2013-03-25 01:40:00,
2013-03-24 21:44:00,46.2,30.9,27.56,NE,45,0.0,0.0,55,0.00,CLR,SKC,1.11,WeatherDisplay:10.37,2013-03-25 01:44:00,
2013-03-24 21:45:00,46.2,30.9,27.56,NE,45,0.0,0.0,55,0.00,CLR,SKC,1.11,WeatherDisplay:10.37,2013-03-25 01:45:00,
2013-03-24 21:49:00,46.0,31.2,27.56,South,180,0.0,0.0,56,0.00,CLR,SKC,1.11,WeatherDisplay:10.37,2013-03-25 01:49:00,
2013-03-24 21:50:00,46.0,31.2,27.56,SE,135,0.0,0.0,56,0.00,CLR,SKC,1.11,WeatherDisplay:10.37,2013-03-25 01:50:00,
2013-03-24 21:54:00,46.0,30.8,27.55,SW,225,3.5,3.5,55,0.00,CLR,SKC,1.11,WeatherDisplay:10.37,2013-03-25 01:54:00,
2013-03-24 21:55:00,46.0,30.3,27.56,West,270,3.5,0.0,54,0.00,CLR,SKC,1.11,WeatherDisplay:10.37,2013-03-25 01:55:00,
2013-03-24 21:56:00,46.0,29.8,27.56,SW,225,2.3,0.0,53,0.00,CLR,SKC,1.11,WeatherDisplay:10.37,2013-03-25 01:56:00,
2013-03-24 21:59:00,46.0,29.8,27.56,SSW,202,0.0,0.0,53,0.00,CLR,SKC,1.11,WeatherDisplay:10.37,2013-03-25 01:59:00,
2013-03-24 22:00:00,46.0,29.8,27.56,NW,315,0.0,0.0,53,0.00,CLR,SKC,1.11,WeatherDisplay:10.37,2013-03-25 02:00:00,
2013-03-24 22:01:00,46.0,29.8,27.56,NW,315,0.0,0.0,53,0.00,CLR,SKC,1.11,WeatherDisplay:10.37,2013-03-25 02:01:00,
2013-03-24 22:04:00,46.0,29.8,27.56,NW,315,0.0,0.0,53,0.00,CLR,SKC,1.11,WeatherDisplay:10.37,2013-03-25 02:04:00,
2013-03-24 22:05:00,46.0,29.8,27.55,NW,315,0.0,0.0,53,0.00,CLR,SKC,1.11,WeatherDisplay:10.37,2013-03-25 02:05:00,
2013-03-24 22:06:00,46.0,29.8,27.56,NW,315,0.0,0.0,53,0.00,CLR,SKC,1.11,WeatherDisplay:10.37,2013-03-25 02:06:00,
2013-03-24 22:09:00,46.0,29.8,27.55,West,270,0.0,0.0,53,0.00,CLR,SKC,1.11,WeatherDisplay:10.37,2013-03-25 02:09:00,
2013-03-24 22:10:00,46.0,29.8,27.55,West,270,0.0,0.0,53,0.00,CLR,SKC,1.11,WeatherDisplay:10.37,2013-03-25 02:10:00,
2013-03-24 22:12:00,45.5,29.8,27.56,West,270,0.0,0.0,54,0.00,CLR,SKC,1.11,WeatherDisplay:10.37,2013-03-25 02:12:00,
2013-03-24 22:15:00,45.9,30.1,27.56,SW,225,0.0,0.0,54,0.00,CLR,SKC,1.11,WeatherDisplay:10.37,2013-03-25 02:15:00,
2013-03-24 22:17:00,45.7,30.0,27.56,West,270,0.0,0.0,54,0.00,CLR,SKC,1.11,WeatherDisplay:10.37,2013-03-25 02:17:00,
2013-03-24 22:20:00,45.7,30.4,27.56,NW,315,0.0,0.0,55,0.00,CLR,SKC,1.11,WeatherDisplay:10.37,2013-03-25 02:20:00,
2013-03-24 22:22:00,45.5,30.3,27.57,NW,315,0.0,0.0,55,0.00,CLR,SKC,1.11,WeatherDisplay:10.37,2013-03-25 02:22:00,
2013-03-24 22:25:00,45.5,29.3,27.57,South,180,10.4,10.4,53,0.00,CLR,SKC,1.11,WeatherDisplay:10.37,2013-03-25 02:25:00,
2013-03-24 22:27:00,45.5,28.4,27.57,NW,315,9.2,9.2,51,0.00,CLR,SKC,1.11,WeatherDisplay:10.37,2013-03-25 02:27:00,
2013-03-24 22:30:00,45.5,27.9,27.58,West,270,5.8,5.8,50,0.00,CLR,SKC,1.11,WeatherDisplay:10.37,2013-03-25 02:30:00,
2013-03-24 22:32:00,45.5,27.4,27.58,SE,135,6.9,6.9,49,0.00,CLR,SKC,1.11,WeatherDisplay:10.37,2013-03-25 02:32:00,
2013-03-24 22:35:00,44.8,25.2,27.58,West,270,15.0,15.0,46,0.00,CLR,SKC,1.11,WeatherDisplay:10.37,2013-03-25 02:35:00,
2013-03-24 22:37:00,45.0,22.6,27.59,NNW,338,12.7,12.7,41,0.00,CLR,SKC,1.11,WeatherDisplay:10.37,2013-03-25 02:37:00,
2013-03-24 22:38:00,45.0,22.6,27.59,ENE,68,9.2,9.2,41,0.00,CLR,SKC,1.11,WeatherDisplay:10.37,2013-03-25 02:38:00,
2013-03-24 22:40:00,44.8,22.5,27.58,SE,135,5.8,5.8,41,0.00,CLR,SKC,1.11,WeatherDisplay:10.37,2013-03-25 02:40:00,
2013-03-24 22:42:00,44.6,21.7,27.58,NNW,338,11.5,11.5,40,0.00,CLR,SKC,1.11,WeatherDisplay:10.37,2013-03-25 02:42:00,
2013-03-24 22:43:00,44.4,21.6,27.59,NW,315,11.5,11.5,40,0.00,CLR,SKC,1.11,WeatherDisplay:10.37,2013-03-25 02:43:00,
2013-03-24 22:45:00,44.2,20.2,27.59,South,180,8.1,8.1,38,0.00,CLR,SKC,1.11,WeatherDisplay:10.37,2013-03-25 02:45:00,
2013-03-24 22:46:00,44.1,20.0,27.60,WNW,292,9.8,9.8,38,0.00,CLR,SKC,1.11,WeatherDisplay:10.37,2013-03-25 02:46:00,
2013-03-24 22:47:00,44.1,18.8,27.59,SW,225,10.4,10.4,36,0.00,CLR,SKC,1.11,WeatherDisplay:10.37,2013-03-25 02:47:00,
2013-03-24 22:48:00,44.1,19.4,27.60,SW,225,6.9,6.9,37,0.00,CLR,SKC,1.11,WeatherDisplay:10.37,2013-03-25 02:48:00,
2013-03-24 22:50:00,43.7,17.8,27.60,West,270,10.4,10.4,35,0.00,CLR,SKC,1.11,WeatherDisplay:10.37,2013-03-25 02:50:00,
2013-03-24 22:51:00,43.7,17.8,27.60,West,270,10.4,10.4,35,0.00,CLR,SKC,1.11,WeatherDisplay:10.37,2013-03-25 02:51:00,
2013-03-24 22:52:00,43.7,19.1,27.60,NE,45,10.4,10.4,37,0.00,CLR,SKC,1.11,WeatherDisplay:10.37,2013-03-25 02:52:00,
2013-03-24 22:53:00,43.5,17.6,27.60,SE,135,11.5,11.5,35,0.00,CLR,SKC,1.11,WeatherDisplay:10.37,2013-03-25 02:53:00,
2013-03-24 22:55:00,43.3,16.8,27.60,West,270,10.4,10.4,34,0.00,CLR,SKC,1.11,WeatherDisplay:10.37,2013-03-25 02:55:00,
2013-03-24 22:56:00,43.3,16.8,27.60,SW,225,8.1,8.1,34,0.00,CLR,SKC,1.11,WeatherDisplay:10.37,2013-03-25 02:56:00,
2013-03-24 22:57:00,43.2,15.3,27.60,NW,315,11.4,11.4,32,0.00,CLR,SKC,1.11,WeatherDisplay:10.37,2013-03-25 02:57:00,
2013-03-24 22:58:00,43.2,15.3,27.60,NW,315,11.5,11.5,32,0.00,CLR,SKC,1.11,WeatherDisplay:10.37,2013-03-25 02:58:00,
2013-03-24 23:00:00,43.0,14.4,27.60,SW,225,8.1,8.1,31,0.00,CLR,SKC,1.11,WeatherDisplay:10.37,2013-03-25 03:00:00,
2013-03-24 23:01:00,43.0,14.4,27.60,SW,225,16.1,16.1,31,0.00,CLR,SKC,1.11,WeatherDisplay:10.37,2013-03-25 03:01:00,
2013-03-24 23:02:00,43.0,14.4,27.61,SW,225,16.1,16.1,31,0.00,CLR,SKC,1.11,WeatherDisplay:10.37,2013-03-25 03:02:00,
2013-03-24 23:03:00,43.0,14.4,27.60,SW,225,16.1,16.1,31,0.00,CLR,SKC,1.11,WeatherDisplay:10.37,2013-03-25 03:03:00,
2013-03-24 23:06:00,43.0,14.4,27.60,SW,225,16.1,16.1,31,0.00,CLR,SKC,1.11,WeatherDisplay:10.37,2013-03-25 03:06:00,
2013-03-24 23:07:00,43.0,14.4,27.61,SW,225,16.1,16.1,31,0.00,CLR,SKC,1.11,WeatherDisplay:10.37,2013-03-25 03:07:00,
2013-03-24 23:08:00,42.6,12.5,27.61,South,180,16.1,16.1,29,0.00,CLR,SKC,1.11,WeatherDisplay:10.37,2013-03-25 03:08:00,
2013-03-24 23:11:00,42.4,13.1,27.61,NW,315,6.9,6.9,30,0.00,CLR,SKC,1.11,WeatherDisplay:10.37,2013-03-25 03:11:00,
2013-03-24 23:13:00,42.4,13.1,27.61,West,270,5.8,5.8,30,0.00,CLR,SKC,1.11,WeatherDisplay:10.37,2013-03-25 03:13:00,
2013-03-24 23:16:00,42.3,13.7,27.62,SE,135,9.2,9.2,31,0.00,CLR,SKC,1.11,WeatherDisplay:10.37,2013-03-25 03:16:00,
2013-03-24 23:18:00,42.1,12.8,27.61,NE,45,10.4,10.4,30,0.00,CLR,SKC,1.11,WeatherDisplay:10.37,2013-03-25 03:18:00,
2013-03-24 23:19:00,42.1,12.1,27.62,NW,315,11.5,11.5,29,0.00,CLR,SKC,1.11,WeatherDisplay:10.37,2013-03-25 03:19:00,
2013-03-24 23:23:00,41.7,11.7,27.62,SE,135,4.6,0.0,29,0.00,CLR,SKC,1.11,WeatherDisplay:10.37,2013-03-25 03:23:00,
2013-03-24 23:24:00,41.4,9.0,27.62,West,270,13.8,13.8,26,0.00,CLR,SKC,1.11,WeatherDisplay:10.37,2013-03-25 03:24:00,
2013-03-24 23:28:00,41.2,8.8,27.62,SE,135,8.3,8.3,26,0.00,CLR,SKC,1.11,WeatherDisplay:10.37,2013-03-25 03:28:00,
2013-03-24 23:29:00,41.0,8.7,27.62,NW,315,8.1,8.1,26,0.00,CLR,SKC,1.11,WeatherDisplay:10.37,2013-03-25 03:29:00,
2013-03-24 23:33:00,40.8,6.7,27.62,NE,45,6.9,6.9,24,0.00,CLR,SKC,1.11,WeatherDisplay:10.37,2013-03-25 03:33:00,
2013-03-24 23:34:00,40.6,7.5,27.62,North,0,5.8,5.8,25,0.00,CLR,SKC,1.11,WeatherDisplay:10.37,2013-03-25 03:34:00,
2013-03-24 23:38:00,40.5,8.2,27.62,NE,45,1.1,3.1,26,0.00,CLR,SKC,1.11,WeatherDisplay:10.37,2013-03-25 03:38:00,
2013-03-24 23:39:00,40.5,8.2,27.62,NE,45,5.8,5.8,26,0.00,CLR,SKC,1.11,WeatherDisplay:10.37,2013-03-25 03:39:00,
2013-03-24 23:44:00,40.5,7.3,27.62,North,0,8.1,8.1,25,0.00,CLR,SKC,1.11,WeatherDisplay:10.37,2013-03-25 03:44:00,
2013-03-24 23:49:00,40.3,4.4,27.62,NW,315,10.4,10.4,22,0.00,CLR,SKC,1.11,WeatherDisplay:10.37,2013-03-25 03:49:00,
2013-03-24 23:54:00,40.1,5.2,27.62,South,180,9.2,0.0,23,0.00,CLR,SKC,1.11,WeatherDisplay:10.37,2013-03-25 03:54:00,
2013-03-24 23:59:00,40.1,6.1,27.62,North,0,4.6,4.6,24,0.00,CLR,SKC,1.11,WeatherDisplay:10.37,2013-03-25 03:59:00,